Wetterdaten: Montag, 04.10.2021
Datum Zeit Temp. Aussen Temp. o. S. Temp +5cm Feuchte Auss Luftdruck Regen Sonnenschein Regendauer Solar Windben Empfang
04.10.2021 00:00 11,9 C 11,1 C 10,6 C 88 % 1012,4 hPa 0,0 l/m 0 min 0 min 0 W/m 12,9 km/h (3 Bft) 97,87 %
04.10.2021 00:02 11,9 C 11,1 C 11,1 C 88 % 1012,4 hPa 0,0 l/m 0 min 0 min 0 W/m 16,1 km/h (3 Bft) 93,75 %
04.10.2021 00:04 11,9 C 11,1 C 11,1 C 88 % 1012,5 hPa 0,0 l/m 0 min 0 min 0 W/m 16,1 km/h (3 Bft) 95,83 %
04.10.2021 00:08 11,9 C 11,1 C 11,1 C 88 % 1012,5 hPa 0,0 l/m 0 min 0 min 0 W/m 16,1 km/h (3 Bft) 98,06 %
04.10.2021 00:10 11,9 C 11,1 C 11,1 C 88 % 1012,5 hPa 0,0 l/m 0 min 0 min 0 W/m 19,3 km/h (3 Bft) 97,87 %
04.10.2021 00:12 11,9 C 11,1 C 11,1 C 88 % 1012,5 hPa 0,0 l/m 0 min 0 min 0 W/m 3,2 km/h (1 Bft) 97,96 %
04.10.2021 00:14 11,9 C 11,1 C 11,1 C 88 % 1012,4 hPa 0,0 l/m 0 min 0 min 0 W/m 9,7 km/h (2 Bft) 95,65 %
04.10.2021 00:16 11,9 C 11,1 C 11,1 C 88 % 1012,5 hPa 0,0 l/m 0 min 0 min 0 W/m 9,7 km/h (2 Bft) 100,00 %
04.10.2021 00:18 11,9 C 11,1 C 11,1 C 88 % 1012,5 hPa 0,0 l/m 0 min 0 min 0 W/m 16,1 km/h (3 Bft) 95,74 %
04.10.2021 00:20 11,9 C 11,1 C 11,1 C 88 % 1012,6 hPa 0,0 l/m 0 min 0 min 0 W/m 6,4 km/h (2 Bft) 97,87 %
04.10.2021 00:22 11,9 C 11,1 C 11,1 C 88 % 1012,6 hPa 0,0 l/m 0 min 0 min 0 W/m 12,9 km/h (3 Bft) 97,87 %
04.10.2021 00:24 11,9 C 11,1 C 11,1 C 88 % 1012,6 hPa 0,0 l/m 0 min 0 min 0 W/m 12,9 km/h (3 Bft) 97,87 %
04.10.2021 00:26 11,9 C 11,1 C 11,1 C 88 % 1012,6 hPa 0,0 l/m 0 min 0 min 0 W/m 6,4 km/h (2 Bft) 95,65 %
04.10.2021 00:28 11,9 C 11,1 C 11,1 C 88 % 1012,6 hPa 0,0 l/m 0 min 0 min 0 W/m 6,4 km/h (2 Bft) 97,87 %
04.10.2021 00:30 11,9 C 11,1 C 11,1 C 88 % 1012,7 hPa 0,0 l/m 0 min 0 min 0 W/m 16,1 km/h (3 Bft) 97,87 %
04.10.2021 00:32 11,9 C 11,1 C 11,1 C 88 % 1012,7 hPa 0,0 l/m 0 min 0 min 0 W/m 12,9 km/h (3 Bft) 97,87 %
04.10.2021 00:34 11,9 C 11,1 C 11,1 C 88 % 1012,6 hPa 0,0 l/m 0 min 0 min 0 W/m 3,2 km/h (1 Bft) 97,87 %
04.10.2021 00:36 11,9 C 11,1 C 11,1 C 88 % 1012,7 hPa 0,0 l/m 0 min 0 min 0 W/m 9,7 km/h (2 Bft) 97,87 %
04.10.2021 00:38 11,9 C 11,1 C 11,1 C 88 % 1012,6 hPa 0,0 l/m 0 min 0 min 0 W/m 6,4 km/h (2 Bft) 97,83 %
04.10.2021 00:40 11,9 C 11,1 C 11,1 C 88 % 1012,6 hPa 0,0 l/m 0 min 0 min 0 W/m 6,4 km/h (2 Bft) 95,74 %
04.10.2021 00:42 11,9 C 11,1 C 11,1 C 88 % 1012,7 hPa 0,0 l/m 0 min 0 min 0 W/m 6,4 km/h (2 Bft) 97,87 %
04.10.2021 00:44 11,9 C 11,1 C 11,1 C 88 % 1012,7 hPa 0,0 l/m 0 min 0 min 0 W/m 6,4 km/h (2 Bft) 97,87 %
04.10.2021 00:46 11,9 C 11,1 C 11,1 C 88 % 1012,7 hPa 0,0 l/m 0 min 0 min 0 W/m 6,4 km/h (2 Bft) 95,74 %
04.10.2021 00:48 11,9 C 11,1 C 11,1 C 88 % 1012,7 hPa 0,0 l/m 0 min 0 min 0 W/m 3,2 km/h (1 Bft) 97,83 %
04.10.2021 00:50 11,9 C 11,1 C 10,6 C 88 % 1012,7 hPa 0,0 l/m 0 min 0 min 0 W/m 3,2 km/h (1 Bft) 97,22 %
04.10.2021 00:52 11,9 C 11,1 C 11,1 C 88 % 1012,7 hPa 0,0 l/m 0 min 0 min 0 W/m 3,2 km/h (1 Bft) 97,83 %
04.10.2021 00:54 11,9 C 11,1 C 10,6 C 88 % 1012,7 hPa 0,0 l/m 0 min 0 min 0 W/m 3,2 km/h (1 Bft) 95,74 %
04.10.2021 00:56 11,9 C 11,1 C 10,6 C 88 % 1012,8 hPa 0,0 l/m 0 min 0 min 0 W/m 6,4 km/h (2 Bft) 97,87 %
04.10.2021 00:58 11,9 C 11,1 C 10,6 C 88 % 1012,9 hPa 0,0 l/m 0 min 0 min 0 W/m 3,2 km/h (1 Bft) 97,87 %
04.10.2021 01:00 11,9 C 11,1 C 10,6 C 88 % 1012,9 hPa 0,0 l/m 0 min 0 min 0 W/m 9,7 km/h (2 Bft) 97,87 %
04.10.2021 01:02 11,9 C 11,1 C 10,6 C 88 % 1012,9 hPa 0,0 l/m 0 min 0 min 0 W/m 3,2 km/h (1 Bft) 98,11 %
04.10.2021 01:04 11,9 C 11,1 C 10,6 C 88 % 1012,9 hPa 0,0 l/m 0 min 0 min 0 W/m 3,2 km/h (1 Bft) 97,87 %
04.10.2021 01:06 11,8 C 11,1 C 11,1 C 88 % 1012,9 hPa 0,0 l/m 0 min 0 min 0 W/m 6,4 km/h (2 Bft) 100,00 %
04.10.2021 01:08 11,8 C 11,1 C 10,6 C 88 % 1012,9 hPa 0,0 l/m 0 min 0 min 0 W/m 6,4 km/h (2 Bft) 100,00 %
04.10.2021 01:10 11,8 C 11,1 C 10,6 C 88 % 1012,9 hPa 0,0 l/m 0 min 0 min 0 W/m 3,2 km/h (1 Bft) 100,00 %
04.10.2021 01:12 11,8 C 11,1 C 10,6 C 89 % 1012,9 hPa 0,0 l/m 0 min 0 min 0 W/m 6,4 km/h (2 Bft) 100,00 %
04.10.2021 01:14 11,8 C 11,1 C 10,6 C 89 % 1012,9 hPa 0,0 l/m 0 min 0 min 0 W/m 9,7 km/h (2 Bft) 100,00 %
04.10.2021 01:16 11,8 C 11,1 C 10,6 C 89 % 1012,9 hPa 0,0 l/m 0 min 0 min 0 W/m 6,4 km/h (2 Bft) 100,00 %
04.10.2021 01:18 11,8 C 11,1 C 10,6 C 89 % 1012,9 hPa 0,0 l/m 0 min 0 min 0 W/m 3,2 km/h (1 Bft) 100,00 %
04.10.2021 01:20 11,8 C 11,1 C 10,6 C 89 % 1013,0 hPa 0,0 l/m 0 min 0 min 0 W/m 9,7 km/h (2 Bft) 97,87 %
04.10.2021 01:22 11,8 C 11,1 C 10,6 C 89 % 1013,0 hPa 0,0 l/m 0 min 0 min 0 W/m 6,4 km/h (2 Bft) 100,00 %
04.10.2021 01:24 11,8 C 11,1 C 10,6 C 89 % 1013,1 hPa 0,0 l/m 0 min 0 min 0 W/m 6,4 km/h (2 Bft) 100,00 %
04.10.2021 01:26 11,8 C 11,1 C 10,6 C 89 % 1013,1 hPa 0,0 l/m 0 min 0 min 0 W/m 6,4 km/h (2 Bft) 100,00 %
04.10.2021 01:28 11,8 C 11,1 C 10,6 C 89 % 1013,1 hPa 0,0 l/m 0 min 0 min 0 W/m 6,4 km/h (2 Bft) 100,00 %
04.10.2021 01:30 11,8 C 11,1 C 10,6 C 89 % 1013,1 hPa 0,0 l/m 0 min 0 min 0 W/m 12,9 km/h (3 Bft) 97,87 %
04.10.2021 01:32 11,8 C 11,1 C 10,6 C 89 % 1013,1 hPa 0,0 l/m 0 min 0 min 0 W/m 9,7 km/h (2 Bft) 97,87 %
04.10.2021 01:34 11,8 C 11,1 C 10,6 C 89 % 1013,0 hPa 0,0 l/m 0 min 0 min 0 W/m 6,4 km/h (2 Bft) 93,62 %
04.10.2021 01:36 11,8 C 11,1 C 10,6 C 89 % 1013,0 hPa 0,0 l/m 0 min 0 min 0 W/m 6,4 km/h (2 Bft) 95,74 %
04.10.2021 01:38 11,8 C 11,1 C 10,6 C 89 % 1012,9 hPa 0,0 l/m 0 min 0 min 0 W/m 6,4 km/h (2 Bft) 95,65 %
04.10.2021 01:40 11,7 C 11,1 C 10,6 C 89 % 1013,0 hPa 0,0 l/m 0 min 0 min 0 W/m 9,7 km/h (2 Bft) 93,62 %
04.10.2021 01:42 11,8 C 11,1 C 10,6 C 89 % 1013,0 hPa 0,0 l/m 0 min 0 min 0 W/m 9,7 km/h (2 Bft) 95,74 %
04.10.2021 01:44 11,7 C 11,1 C 10,6 C 89 % 1013,0 hPa 0,0 l/m 0 min 0 min 0 W/m 12,9 km/h (3 Bft) 95,74 %
04.10.2021 01:46 11,8 C 11,1 C 10,6 C 89 % 1013,0 hPa 0,0 l/m 0 min 0 min 0 W/m 12,9 km/h (3 Bft) 93,62 %
04.10.2021 01:48 11,8 C 11,1 C 10,6 C 89 % 1013,0 hPa 0,0 l/m 0 min 0 min 0 W/m 6,4 km/h (2 Bft) 93,62 %
04.10.2021 01:50 11,7 C 11,1 C 10,6 C 89 % 1013,0 hPa 0,0 l/m 0 min 0 min 0 W/m 12,9 km/h (3 Bft) 95,65 %
04.10.2021 01:52 11,7 C 11,1 C 10,6 C 89 % 1013,0 hPa 0,0 l/m 0 min 0 min 0 W/m 12,9 km/h (3 Bft) 95,74 %
04.10.2021 01:54 11,7 C 11,1 C 10,6 C 89 % 1013,0 hPa 0,0 l/m 0 min 0 min 0 W/m 6,4 km/h (2 Bft) 93,62 %
04.10.2021 01:56 11,7 C 11,1 C 10,6 C 89 % 1013,0 hPa 0,0 l/m 0 min 0 min 0 W/m 9,7 km/h (2 Bft) 95,74 %
04.10.2021 01:58 11,7 C 11,1 C 10,6 C 89 % 1013,0 hPa 0,0 l/m 0 min 0 min 0 W/m 6,4 km/h (2 Bft) 95,74 %
04.10.2021 02:00 11,7 C 11,1 C 10,6 C 89 % 1013,1 hPa 0,0 l/m 0 min 0 min 0 W/m 6,4 km/h (2 Bft) 95,74 %
04.10.2021 02:02 11,7 C 11,1 C 10,6 C 89 % 1013,1 hPa 0,0 l/m 0 min 0 min 0 W/m 12,9 km/h (3 Bft) 97,83 %
04.10.2021 02:04 11,7 C 11,1 C 10,6 C 89 % 1013,2 hPa 0,0 l/m 0 min 0 min 0 W/m 12,9 km/h (3 Bft) 95,74 %
04.10.2021 02:06 11,7 C 11,1 C 10,6 C 89 % 1013,2 hPa 0,0 l/m 0 min 0 min 0 W/m 6,4 km/h (2 Bft) 98,11 %
04.10.2021 02:08 11,7 C 11,1 C 10,6 C 89 % 1013,3 hPa 0,0 l/m 0 min 0 min 0 W/m 22,5 km/h (4 Bft) 97,87 %
04.10.2021 02:10 11,7 C 11,1 C 10,6 C 89 % 1013,4 hPa 0,0 l/m 0 min 0 min 0 W/m 12,9 km/h (3 Bft) 97,56 %
04.10.2021 02:12 11,8 C 11,1 C 10,6 C 89 % 1013,4 hPa 0,0 l/m 0 min 0 min 0 W/m 16,1 km/h (3 Bft) 97,87 %
04.10.2021 02:14 11,7 C 11,1 C 10,6 C 89 % 1013,4 hPa 0,0 l/m 0 min 0 min 0 W/m 19,3 km/h (3 Bft) 97,83 %
04.10.2021 02:16 11,8 C 11,1 C 10,6 C 89 % 1013,4 hPa 0,0 l/m 0 min 0 min 0 W/m 16,1 km/h (3 Bft) 97,87 %
04.10.2021 02:18 11,8 C 11,1 C 10,6 C 89 % 1013,4 hPa 0,0 l/m 0 min 0 min 0 W/m 6,4 km/h (2 Bft) 97,87 %
04.10.2021 02:20 11,8 C 11,1 C 10,6 C 89 % 1013,5 hPa 0,0 l/m 0 min 0 min 0 W/m 16,1 km/h (3 Bft) 95,74 %
04.10.2021 02:22 11,8 C 11,1 C 10,6 C 89 % 1013,5 hPa 0,0 l/m 0 min 0 min 0 W/m 16,1 km/h (3 Bft) 95,74 %
04.10.2021 02:24 11,8 C 11,1 C 10,6 C 89 % 1013,5 hPa 0,0 l/m 0 min 0 min 0 W/m 16,1 km/h (3 Bft) 100,00 %
04.10.2021 02:26 11,8 C 11,1 C 10,6 C 89 % 1013,5 hPa 0,0 l/m 0 min 0 min 0 W/m 6,4 km/h (2 Bft) 97,87 %
04.10.2021 02:28 11,8 C 11,1 C 10,6 C 89 % 1013,5 hPa 0,0 l/m 0 min 0 min 0 W/m 16,1 km/h (3 Bft) 100,00 %
04.10.2021 02:30 11,8 C 11,1 C 10,6 C 89 % 1013,5 hPa 0,0 l/m 0 min 0 min 0 W/m 12,9 km/h (3 Bft) 100,00 %
04.10.2021 02:32 11,8 C 11,1 C 10,6 C 89 % 1013,5 hPa 0,0 l/m 0 min 0 min 0 W/m 16,1 km/h (3 Bft) 100,00 %
04.10.2021 02:34 11,8 C 11,1 C 10,6 C 89 % 1013,5 hPa 0,0 l/m 0 min 0 min 0 W/m 12,9 km/h (3 Bft) 100,00 %
04.10.2021 02:36 11,7 C 11,1 C 10,6 C 89 % 1013,5 hPa 0,0 l/m 0 min 0 min 0 W/m 12,9 km/h (3 Bft) 96,15 %
04.10.2021 02:38 11,7 C 11,1 C 10,6 C 89 % 1013,7 hPa 0,0 l/m 0 min 0 min 0 W/m 16,1 km/h (3 Bft) 100,00 %
04.10.2021 02:40 11,7 C 11,1 C 10,6 C 89 % 1013,7 hPa 0,0 l/m 0 min 0 min 0 W/m 9,7 km/h (2 Bft) 100,00 %
04.10.2021 02:42 11,7 C 11,1 C 10,6 C 89 % 1013,7 hPa 0,0 l/m 0 min 0 min 0 W/m 12,9 km/h (3 Bft) 97,87 %
04.10.2021 02:44 11,7 C 11,1 C 10,6 C 89 % 1013,6 hPa 0,0 l/m 0 min 0 min 0 W/m 6,4 km/h (2 Bft) 100,00 %
04.10.2021 02:46 11,6 C 11,1 C 10,6 C 89 % 1013,6 hPa 0,0 l/m 0 min 0 min 0 W/m 9,7 km/h (2 Bft) 100,00 %
04.10.2021 02:48 11,6 C 11,1 C 10,6 C 89 % 1013,7 hPa 0,0 l/m 0 min 0 min 0 W/m 12,9 km/h (3 Bft) 97,83 %
04.10.2021 02:50 11,6 C 11,1 C 10,6 C 89 % 1013,7 hPa 0,0 l/m 0 min 0 min 0 W/m 12,9 km/h (3 Bft) 97,87 %
04.10.2021 02:52 11,6 C 10,6 C 10,6 C 89 % 1013,7 hPa 0,0 l/m 0 min 0 min 0 W/m 16,1 km/h (3 Bft) 100,00 %
04.10.2021 02:54 11,6 C 10,6 C 10,6 C 89 % 1013,7 hPa 0,0 l/m 0 min 0 min 0 W/m 12,9 km/h (3 Bft) 100,00 %
04.10.2021 02:56 11,6 C 10,6 C 10,6 C 90 % 1013,6 hPa 0,0 l/m 0 min 0 min 0 W/m 9,7 km/h (2 Bft) 97,87 %
04.10.2021 02:58 11,6 C 11,1 C 10,6 C 90 % 1013,7 hPa 0,0 l/m 0 min 0 min 0 W/m 12,9 km/h (3 Bft) 97,87 %
04.10.2021 03:00 11,6 C 11,1 C 10,6 C 90 % 1013,6 hPa 0,0 l/m 0 min 0 min 0 W/m 12,9 km/h (3 Bft) 98,08 %
04.10.2021 03:02 11,6 C 11,1 C 10,6 C 90 % 1013,6 hPa 0,0 l/m 0 min 0 min 0 W/m 9,7 km/h (2 Bft) 97,56 %
04.10.2021 03:04 11,6 C 11,1 C 10,6 C 90 % 1013,7 hPa 0,0 l/m 0 min 0 min 0 W/m 6,4 km/h (2 Bft) 97,87 %
04.10.2021 03:06 11,6 C 11,1 C 10,6 C 90 % 1013,6 hPa 0,0 l/m 0 min 0 min 0 W/m 16,1 km/h (3 Bft) 94,34 %
04.10.2021 03:08 11,6 C 11,1 C 10,6 C 90 % 1013,7 hPa 0,0 l/m 0 min 0 min 0 W/m 12,9 km/h (3 Bft) 97,87 %
04.10.2021 03:10 11,6 C 11,1 C 10,6 C 90 % 1013,7 hPa 0,0 l/m 0 min 0 min 0 W/m 9,7 km/h (2 Bft) 97,83 %
04.10.2021 03:12 11,6 C 11,1 C 10,6 C 90 % 1013,7 hPa 0,0 l/m 0 min 0 min 0 W/m 9,7 km/h (2 Bft) 97,87 %
04.10.2021 03:14 11,6 C 11,1 C 10,6 C 90 % 1013,7 hPa 0,0 l/m 0 min 0 min 0 W/m 9,7 km/h (2 Bft) 97,56 %
04.10.2021 03:16 11,6 C 11,1 C 10,6 C 90 % 1013,7 hPa 0,0 l/m 0 min 0 min 0 W/m 19,3 km/h (3 Bft) 97,87 %
04.10.2021 03:18 11,6 C 11,1 C 10,6 C 90 % 1013,7 hPa 0,0 l/m 0 min 0 min 0 W/m 9,7 km/h (2 Bft) 97,87 %
04.10.2021 03:20 11,6 C 11,1 C 10,6 C 90 % 1013,7 hPa 0,0 l/m 0 min 0 min 0 W/m 6,4 km/h (2 Bft) 97,87 %
04.10.2021 03:22 11,6 C 11,1 C 10,6 C 90 % 1013,7 hPa 0,0 l/m 0 min 0 min 0 W/m 6,4 km/h (2 Bft) 95,74 %
04.10.2021 03:24 11,6 C 11,1 C 10,6 C 90 % 1013,7 hPa 0,0 l/m 0 min 0 min 0 W/m 6,4 km/h (2 Bft) 95,65 %
04.10.2021 03:26 11,6 C 11,1 C 10,6 C 90 % 1013,8 hPa 0,0 l/m 0 min 0 min 0 W/m 3,2 km/h (1 Bft) 95,74 %
04.10.2021 03:28 11,6 C 11,1 C 10,6 C 90 % 1013,8 hPa 0,0 l/m 0 min 0 min 0 W/m 6,4 km/h (2 Bft) 95,74 %
04.10.2021 03:30 11,6 C 11,1 C 10,6 C 90 % 1013,9 hPa 0,0 l/m 0 min 0 min 0 W/m 6,4 km/h (2 Bft) 95,74 %
04.10.2021 03:32 11,6 C 11,1 C 10,6 C 90 % 1013,9 hPa 0,0 l/m 0 min 0 min 0 W/m 3,2 km/h (1 Bft) 95,74 %
04.10.2021 03:34 11,5 C 10,6 C 10,6 C 90 % 1013,9 hPa 0,0 l/m 0 min 0 min 0 W/m 3,2 km/h (1 Bft) 95,74 %
04.10.2021 03:36 11,6 C 10,6 C 10,6 C 90 % 1013,9 hPa 0,0 l/m 0 min 0 min 0 W/m 0,0 km/h (0 Bft) 94,23 %
04.10.2021 03:38 11,5 C 10,6 C 10,6 C 90 % 1014,0 hPa 0,0 l/m 0 min 0 min 0 W/m 0,0 km/h (0 Bft) 95,74 %
04.10.2021 03:40 11,5 C 10,6 C 10,6 C 90 % 1013,9 hPa 0,0 l/m 0 min 0 min 0 W/m 3,2 km/h (1 Bft) 95,74 %
04.10.2021 03:42 11,5 C 10,6 C 10,6 C 90 % 1013,9 hPa 0,0 l/m 0 min 0 min 0 W/m 3,2 km/h (1 Bft) 95,74 %
04.10.2021 03:44 11,5 C 10,6 C 10,6 C 90 % 1013,9 hPa 0,0 l/m 0 min 0 min 0 W/m 6,4 km/h (2 Bft) 97,87 %
04.10.2021 03:46 11,5 C 10,6 C 10,6 C 90 % 1014,0 hPa 0,0 l/m 0 min 0 min 0 W/m 6,4 km/h (2 Bft) 97,56 %
04.10.2021 03:48 11,5 C 10,6 C 10,6 C 90 % 1014,0 hPa 0,0 l/m 0 min 0 min 0 W/m 6,4 km/h (2 Bft) 97,83 %
04.10.2021 03:50 11,5 C 10,6 C 10,6 C 90 % 1013,9 hPa 0,0 l/m 0 min 0 min 0 W/m 3,2 km/h (1 Bft) 97,87 %
04.10.2021 03:52 11,5 C 10,6 C 10,6 C 90 % 1013,9 hPa 0,0 l/m 0 min 0 min 0 W/m 3,2 km/h (1 Bft) 97,87 %
04.10.2021 03:54 11,5 C 10,6 C 10,6 C 90 % 1013,8 hPa 0,0 l/m 0 min 0 min 0 W/m 3,2 km/h (1 Bft) 97,87 %
04.10.2021 03:56 11,5 C 10,6 C 10,6 C 90 % 1013,8 hPa 0,0 l/m 0 min 0 min 0 W/m 6,4 km/h (2 Bft) 97,87 %
04.10.2021 03:58 11,5 C 10,6 C 10,6 C 90 % 1013,9 hPa 0,0 l/m 0 min 0 min 0 W/m 3,2 km/h (1 Bft) 100,00 %
04.10.2021 04:00 11,5 C 10,6 C 10,6 C 90 % 1013,9 hPa 0,0 l/m 0 min 0 min 0 W/m 3,2 km/h (1 Bft) 100,00 %
04.10.2021 04:05 11,5 C 10,6 C 10,6 C 90 % 1013,9 hPa 0,0 l/m 0 min 0 min 0 W/m 3,2 km/h (1 Bft) 100,00 %
04.10.2021 04:06 11,5 C 10,6 C 10,6 C 90 % 1013,9 hPa 0,0 l/m 0 min 0 min 0 W/m 3,2 km/h (1 Bft) 93,33 %
04.10.2021 04:08 11,5 C 10,6 C 10,6 C 90 % 1013,9 hPa 0,0 l/m 0 min 0 min 0 W/m 6,4 km/h (2 Bft) 66,67 %
04.10.2021 04:10 11,5 C 10,6 C 10,6 C 90 % 1013,9 hPa 0,0 l/m 0 min 0 min 0 W/m 6,4 km/h (2 Bft) 100,00 %
04.10.2021 04:16 11,4 C 10,6 C 10,6 C 90 % 1013,9 hPa 0,0 l/m 0 min 0 min 0 W/m 3,2 km/h (1 Bft) 100,00 %
04.10.2021 04:18 11,4 C 10,6 C 10,6 C 90 % 1013,9 hPa 0,0 l/m 0 min 0 min 0 W/m 3,2 km/h (1 Bft) 100,00 %
04.10.2021 04:20 11,4 C 10,6 C 10,6 C 90 % 1013,9 hPa 0,0 l/m 0 min 0 min 0 W/m 3,2 km/h (1 Bft) 97,87 %
04.10.2021 04:22 11,4 C 10,6 C 10,6 C 90 % 1013,9 hPa 0,0 l/m 0 min 0 min 0 W/m 3,2 km/h (1 Bft) 100,00 %
04.10.2021 04:24 11,4 C 10,6 C 10,6 C 90 % 1013,9 hPa 0,0 l/m 0 min 0 min 0 W/m 6,4 km/h (2 Bft) 97,87 %
04.10.2021 04:26 11,4 C 10,6 C 10,6 C 90 % 1013,9 hPa 0,0 l/m 0 min 0 min 0 W/m 3,2 km/h (1 Bft) 100,00 %
04.10.2021 04:28 11,4 C 10,6 C 10,6 C 90 % 1013,9 hPa 0,0 l/m 0 min 0 min 0 W/m 6,4 km/h (2 Bft) 100,00 %
04.10.2021 04:30 11,4 C 10,6 C 10,6 C 90 % 1013,9 hPa 0,0 l/m 0 min 0 min 0 W/m 3,2 km/h (1 Bft) 100,00 %
04.10.2021 04:32 11,3 C 10,6 C 10,6 C 90 % 1013,9 hPa 0,0 l/m 0 min 0 min 0 W/m 6,4 km/h (2 Bft) 100,00 %
04.10.2021 04:34 11,3 C 10,6 C 10,6 C 90 % 1013,9 hPa 0,0 l/m 0 min 0 min 0 W/m 3,2 km/h (1 Bft) 100,00 %
04.10.2021 04:36 11,3 C 10,6 C 10,6 C 90 % 1013,9 hPa 0,0 l/m 0 min 0 min 0 W/m 3,2 km/h (1 Bft) 94,34 %
04.10.2021 04:38 11,3 C 10,6 C 10,6 C 90 % 1013,9 hPa 0,0 l/m 0 min 0 min 0 W/m 6,4 km/h (2 Bft) 95,74 %
04.10.2021 04:40 11,3 C 10,6 C 10,6 C 90 % 1013,9 hPa 0,0 l/m 0 min 0 min 0 W/m 6,4 km/h (2 Bft) 97,87 %
04.10.2021 04:42 11,3 C 10,6 C 10,6 C 90 % 1013,9 hPa 0,0 l/m 0 min 0 min 0 W/m 6,4 km/h (2 Bft) 97,87 %
04.10.2021 04:44 11,2 C 10,6 C 10,6 C 90 % 1014,0 hPa 0,0 l/m 0 min 0 min 0 W/m 3,2 km/h (1 Bft) 97,83 %
04.10.2021 04:46 11,2 C 10,6 C 10,6 C 90 % 1014,0 hPa 0,0 l/m 0 min 0 min 0 W/m 6,4 km/h (2 Bft) 95,12 %
04.10.2021 04:48 11,2 C 10,6 C 10,0 C 90 % 1014,0 hPa 0,0 l/m 0 min 0 min 0 W/m 6,4 km/h (2 Bft) 97,87 %
04.10.2021 04:50 11,2 C 10,6 C 10,6 C 90 % 1013,9 hPa 0,0 l/m 0 min 0 min 0 W/m 3,2 km/h (1 Bft) 97,87 %
04.10.2021 04:52 11,2 C 10,6 C 10,6 C 90 % 1013,9 hPa 0,0 l/m 0 min 0 min 0 W/m 6,4 km/h (2 Bft) 97,87 %
04.10.2021 04:54 11,1 C 10,6 C 10,6 C 90 % 1013,9 hPa 0,0 l/m 0 min 0 min 0 W/m 9,7 km/h (2 Bft) 95,74 %
04.10.2021 04:56 11,1 C 10,6 C 10,6 C 90 % 1013,9 hPa 0,0 l/m 0 min 0 min 0 W/m 6,4 km/h (2 Bft) 95,74 %
04.10.2021 04:58 11,1 C 10,6 C 10,6 C 91 % 1013,8 hPa 0,0 l/m 0 min 0 min 0 W/m 6,4 km/h (2 Bft) 97,83 %
04.10.2021 05:00 11,1 C 10,6 C 10,6 C 91 % 1013,9 hPa 0,0 l/m 0 min 0 min 0 W/m 3,2 km/h (1 Bft) 97,87 %
04.10.2021 05:02 11,1 C 10,6 C 10,6 C 91 % 1013,9 hPa 0,0 l/m 0 min 0 min 0 W/m 3,2 km/h (1 Bft) 97,87 %
04.10.2021 05:04 11,1 C 10,6 C 10,6 C 91 % 1013,9 hPa 0,0 l/m 0 min 0 min 0 W/m 3,2 km/h (1 Bft) 97,87 %
04.10.2021 05:06 11,1 C 10,6 C 10,6 C 91 % 1014,0 hPa 0,0 l/m 0 min 0 min 0 W/m 6,4 km/h (2 Bft) 94,34 %
04.10.2021 05:08 11,1 C 10,6 C 10,6 C 91 % 1014,1 hPa 0,0 l/m 0 min 0 min 0 W/m 12,9 km/h (3 Bft) 97,83 %
04.10.2021 05:10 11,1 C 10,6 C 10,6 C 91 % 1014,2 hPa 0,0 l/m 0 min 0 min 0 W/m 6,4 km/h (2 Bft) 97,87 %
04.10.2021 05:12 11,1 C 10,6 C 10,6 C 91 % 1014,1 hPa 0,0 l/m 0 min 0 min 0 W/m 9,7 km/h (2 Bft) 95,74 %
04.10.2021 05:14 11,1 C 10,6 C 10,6 C 91 % 1014,1 hPa 0,0 l/m 0 min 0 min 0 W/m 6,4 km/h (2 Bft) 97,87 %
04.10.2021 05:16 11,1 C 10,6 C 10,6 C 91 % 1014,2 hPa 0,0 l/m 0 min 0 min 0 W/m 6,4 km/h (2 Bft) 95,12 %
04.10.2021 05:18 11,1 C 10,6 C 10,6 C 91 % 1014,2 hPa 0,0 l/m 0 min 0 min 0 W/m 6,4 km/h (2 Bft) 93,62 %
04.10.2021 05:20 11,1 C 10,6 C 10,6 C 91 % 1014,2 hPa 0,0 l/m 0 min 0 min 0 W/m 12,9 km/h (3 Bft) 95,65 %
04.10.2021 05:22 11,1 C 10,6 C 10,6 C 91 % 1014,2 hPa 0,0 l/m 0 min 0 min 0 W/m 6,4 km/h (2 Bft) 93,62 %
04.10.2021 05:24 11,1 C 10,6 C 10,6 C 91 % 1014,3 hPa 0,0 l/m 0 min 0 min 0 W/m 6,4 km/h (2 Bft) 93,62 %
04.10.2021 05:26 11,1 C 10,6 C 10,6 C 91 % 1014,4 hPa 0,0 l/m 0 min 0 min 0 W/m 6,4 km/h (2 Bft) 95,74 %
04.10.2021 05:28 11,1 C 10,6 C 10,6 C 91 % 1014,4 hPa 0,0 l/m 0 min 0 min 0 W/m 12,9 km/h (3 Bft) 97,87 %
04.10.2021 05:30 11,2 C 10,6 C 10,6 C 91 % 1014,5 hPa 0,0 l/m 0 min 0 min 0 W/m 6,4 km/h (2 Bft) 95,74 %
04.10.2021 05:32 11,2 C 10,6 C 10,6 C 91 % 1014,5 hPa 0,0 l/m 0 min 0 min 0 W/m 6,4 km/h (2 Bft) 97,87 %
04.10.2021 05:34 11,2 C 10,6 C 10,6 C 91 % 1014,5 hPa 0,0 l/m 0 min 0 min 0 W/m 12,9 km/h (3 Bft) 93,48 %
04.10.2021 05:36 11,2 C 10,6 C 10,6 C 91 % 1014,5 hPa 0,0 l/m 0 min 0 min 0 W/m 6,4 km/h (2 Bft) 93,62 %
04.10.2021 05:38 11,2 C 10,6 C 10,6 C 91 % 1014,6 hPa 0,0 l/m 0 min 0 min 0 W/m 6,4 km/h (2 Bft) 95,74 %
04.10.2021 05:40 11,2 C 10,6 C 10,6 C 91 % 1014,5 hPa 0,0 l/m 0 min 0 min 0 W/m 6,4 km/h (2 Bft) 95,74 %
04.10.2021 05:42 11,2 C 10,6 C 10,6 C 91 % 1014,6 hPa 0,0 l/m 0 min 0 min 0 W/m 6,4 km/h (2 Bft) 95,74 %
04.10.2021 05:44 11,2 C 10,6 C 10,6 C 91 % 1014,6 hPa 0,0 l/m 0 min 0 min 0 W/m 6,4 km/h (2 Bft) 95,65 %
04.10.2021 05:46 11,1 C 10,6 C 10,0 C 91 % 1014,6 hPa 0,0 l/m 0 min 0 min 0 W/m 6,4 km/h (2 Bft) 93,62 %
04.10.2021 05:48 11,1 C 10,0 C 10,0 C 91 % 1014,6 hPa 0,0 l/m 0 min 0 min 0 W/m 6,4 km/h (2 Bft) 95,74 %
04.10.2021 05:50 11,1 C 10,0 C 10,0 C 91 % 1014,7 hPa 0,0 l/m 0 min 0 min 0 W/m 3,2 km/h (1 Bft) 97,87 %
04.10.2021 05:52 11,1 C 10,0 C 10,0 C 91 % 1014,7 hPa 0,0 l/m 0 min 0 min 0 W/m 6,4 km/h (2 Bft) 96,23 %
04.10.2021 05:54 11,0 C 10,0 C 10,0 C 91 % 1014,7 hPa 0,0 l/m 0 min 0 min 0 W/m 6,4 km/h (2 Bft) 97,87 %
04.10.2021 05:56 11,0 C 10,0 C 10,0 C 91 % 1014,7 hPa 0,0 l/m 0 min 0 min 0 W/m 6,4 km/h (2 Bft) 93,48 %
04.10.2021 05:58 11,0 C 10,0 C 10,0 C 91 % 1014,7 hPa 0,0 l/m 0 min 0 min 0 W/m 6,4 km/h (2 Bft) 97,87 %
04.10.2021 06:00 11,0 C 10,0 C 10,0 C 91 % 1014,7 hPa 0,0 l/m 0 min 0 min 0 W/m 12,9 km/h (3 Bft) 97,56 %
04.10.2021 06:02 11,0 C 10,0 C 10,0 C 91 % 1014,7 hPa 0,0 l/m 0 min 0 min 0 W/m 6,4 km/h (2 Bft) 97,87 %
04.10.2021 06:04 10,9 C 10,0 C 10,0 C 91 % 1014,7 hPa 0,0 l/m 0 min 0 min 0 W/m 6,4 km/h (2 Bft) 97,87 %
04.10.2021 06:08 10,9 C 10,0 C 10,0 C 91 % 1014,8 hPa 0,0 l/m 0 min 0 min 0 W/m 9,7 km/h (2 Bft) 98,00 %
04.10.2021 06:10 10,9 C 10,0 C 10,0 C 91 % 1014,8 hPa 0,0 l/m 0 min 0 min 0 W/m 6,4 km/h (2 Bft) 97,87 %
04.10.2021 06:12 10,9 C 10,0 C 10,0 C 91 % 1014,8 hPa 0,0 l/m 0 min 0 min 0 W/m 6,4 km/h (2 Bft) 97,87 %
04.10.2021 06:14 10,9 C 10,0 C 10,0 C 91 % 1014,8 hPa 0,0 l/m 0 min 0 min 0 W/m 3,2 km/h (1 Bft) 97,87 %
04.10.2021 06:16 10,9 C 10,0 C 10,0 C 92 % 1014,8 hPa 0,0 l/m 0 min 0 min 0 W/m 12,9 km/h (3 Bft) 95,74 %
04.10.2021 06:18 10,9 C 10,0 C 10,0 C 92 % 1014,8 hPa 0,0 l/m 0 min 0 min 0 W/m 3,2 km/h (1 Bft) 97,83 %
04.10.2021 06:20 10,9 C 10,0 C 10,0 C 92 % 1014,8 hPa 0,0 l/m 0 min 0 min 0 W/m 6,4 km/h (2 Bft) 97,87 %
04.10.2021 06:22 10,9 C 10,0 C 10,0 C 92 % 1014,8 hPa 0,0 l/m 0 min 0 min 0 W/m 3,2 km/h (1 Bft) 100,00 %
04.10.2021 06:24 10,8 C 10,0 C 10,0 C 92 % 1014,8 hPa 0,0 l/m 0 min 0 min 0 W/m 3,2 km/h (1 Bft) 100,00 %
04.10.2021 06:26 10,8 C 10,0 C 10,0 C 92 % 1014,8 hPa 0,0 l/m 0 min 0 min 0 W/m 6,4 km/h (2 Bft) 100,00 %
04.10.2021 06:28 10,8 C 10,0 C 10,0 C 92 % 1014,8 hPa 0,0 l/m 0 min 0 min 0 W/m 6,4 km/h (2 Bft) 100,00 %
04.10.2021 06:30 10,8 C 10,0 C 10,0 C 92 % 1014,8 hPa 0,0 l/m 0 min 0 min 0 W/m 6,4 km/h (2 Bft) 100,00 %
04.10.2021 06:32 10,8 C 10,0 C 10,0 C 92 % 1014,7 hPa 0,0 l/m 0 min 0 min 0 W/m 6,4 km/h (2 Bft) 100,00 %
04.10.2021 06:34 10,8 C 10,0 C 10,0 C 92 % 1014,7 hPa 0,0 l/m 0 min 0 min 0 W/m 6,4 km/h (2 Bft) 100,00 %
04.10.2021 06:36 10,8 C 10,0 C 10,0 C 92 % 1014,7 hPa 0,0 l/m 0 min 0 min 0 W/m 6,4 km/h (2 Bft) 100,00 %
04.10.2021 06:38 10,8 C 10,0 C 10,0 C 92 % 1014,7 hPa 0,0 l/m 0 min 0 min 0 W/m 6,4 km/h (2 Bft) 100,00 %
04.10.2021 06:40 10,8 C 10,0 C 10,0 C 92 % 1014,7 hPa 0,0 l/m 0 min 0 min 0 W/m 6,4 km/h (2 Bft) 100,00 %
04.10.2021 06:42 10,8 C 10,0 C 10,0 C 92 % 1014,7 hPa 0,0 l/m 0 min 0 min 0 W/m 3,2 km/h (1 Bft) 100,00 %
04.10.2021 06:44 10,8 C 10,0 C 10,0 C 92 % 1014,8 hPa 0,0 l/m 0 min 0 min 0 W/m 6,4 km/h (2 Bft) 100,00 %
04.10.2021 06:46 10,8 C 10,0 C 10,0 C 92 % 1014,8 hPa 0,0 l/m 0 min 0 min 0 W/m 3,2 km/h (1 Bft) 100,00 %
04.10.2021 06:48 10,8 C 10,0 C 10,0 C 92 % 1014,8 hPa 0,0 l/m 0 min 0 min 0 W/m 6,4 km/h (2 Bft) 100,00 %
04.10.2021 06:50 10,7 C 10,0 C 10,0 C 92 % 1014,8 hPa 0,0 l/m 0 min 0 min 0 W/m 6,4 km/h (2 Bft) 97,87 %
04.10.2021 06:52 10,8 C 10,0 C 10,0 C 92 % 1014,8 hPa 0,0 l/m 0 min 0 min 0 W/m 3,2 km/h (1 Bft) 100,00 %
04.10.2021 06:54 10,7 C 10,0 C 10,0 C 92 % 1014,8 hPa 0,0 l/m 0 min 0 min 0 W/m 6,4 km/h (2 Bft) 100,00 %
04.10.2021 06:56 10,7 C 10,0 C 10,0 C 92 % 1014,7 hPa 0,0 l/m 0 min 0 min 0 W/m 3,2 km/h (1 Bft) 100,00 %
04.10.2021 06:58 10,7 C 10,0 C 10,0 C 92 % 1014,8 hPa 0,0 l/m 0 min 0 min 0 W/m 3,2 km/h (1 Bft) 97,87 %
04.10.2021 07:00 10,7 C 10,0 C 10,0 C 92 % 1014,8 hPa 0,0 l/m 0 min 0 min 0 W/m 12,9 km/h (3 Bft) 97,87 %
04.10.2021 07:02 10,7 C 10,0 C 10,0 C 92 % 1014,8 hPa 0,0 l/m 0 min 0 min 0 W/m 3,2 km/h (1 Bft) 100,00 %
04.10.2021 07:04 10,7 C 10,0 C 10,0 C 92 % 1014,8 hPa 0,0 l/m 0 min 0 min 0 W/m 6,4 km/h (2 Bft) 100,00 %
04.10.2021 07:06 10,7 C 10,0 C 10,0 C 92 % 1014,8 hPa 0,0 l/m 0 min 0 min 0 W/m 6,4 km/h (2 Bft) 100,00 %
04.10.2021 07:08 10,7 C 10,0 C 10,0 C 92 % 1014,9 hPa 0,0 l/m 0 min 0 min 0 W/m 6,4 km/h (2 Bft) 97,87 %
04.10.2021 07:10 10,7 C 10,0 C 10,0 C 92 % 1014,9 hPa 0,0 l/m 0 min 0 min 0 W/m 9,7 km/h (2 Bft) 97,87 %
04.10.2021 07:12 10,7 C 10,0 C 10,0 C 92 % 1015,0 hPa 0,0 l/m 0 min 0 min 0 W/m 3,2 km/h (1 Bft) 97,87 %
04.10.2021 07:14 10,7 C 10,0 C 10,0 C 93 % 1014,9 hPa 0,0 l/m 0 min 0 min 0 W/m 6,4 km/h (2 Bft) 97,87 %
04.10.2021 07:16 10,7 C 10,0 C 10,0 C 93 % 1014,9 hPa 0,0 l/m 0 min 0 min 0 W/m 3,2 km/h (1 Bft) 97,83 %
04.10.2021 07:18 10,7 C 10,0 C 10,0 C 93 % 1014,9 hPa 0,0 l/m 0 min 0 min 0 W/m 3,2 km/h (1 Bft) 95,74 %
04.10.2021 07:20 10,7 C 10,0 C 10,0 C 93 % 1015,0 hPa 0,0 l/m 0 min 0 min 0 W/m 6,4 km/h (2 Bft) 95,74 %
04.10.2021 07:22 10,7 C 10,0 C 10,0 C 93 % 1015,1 hPa 0,0 l/m 0 min 0 min 0 W/m 6,4 km/h (2 Bft) 97,87 %
04.10.2021 07:24 10,7 C 10,0 C 10,0 C 93 % 1015,1 hPa 0,0 l/m 0 min 0 min 0 W/m 6,4 km/h (2 Bft) 97,87 %
04.10.2021 07:26 10,7 C 10,0 C 10,0 C 93 % 1015,1 hPa 0,0 l/m 0 min 0 min 0 W/m 6,4 km/h (2 Bft) 97,83 %
04.10.2021 07:28 10,7 C 10,0 C 10,0 C 93 % 1015,1 hPa 0,0 l/m 0 min 0 min 0 W/m 3,2 km/h (1 Bft) 97,87 %
04.10.2021 07:30 10,7 C 10,0 C 10,0 C 93 % 1015,1 hPa 0,0 l/m 0 min 0 min 0 W/m 3,2 km/h (1 Bft) 95,74 %
04.10.2021 07:32 10,7 C 10,0 C 10,0 C 93 % 1015,2 hPa 0,0 l/m 0 min 0 min 0 W/m 3,2 km/h (1 Bft) 97,87 %
04.10.2021 07:34 10,6 C 10,0 C 10,0 C 93 % 1015,2 hPa 0,0 l/m 0 min 0 min 0 W/m 6,4 km/h (2 Bft) 97,87 %
04.10.2021 07:36 10,7 C 10,0 C 10,0 C 93 % 1015,2 hPa 0,0 l/m 0 min 0 min 0 W/m 3,2 km/h (1 Bft) 97,87 %
04.10.2021 07:38 10,6 C 10,0 C 10,0 C 93 % 1015,2 hPa 0,0 l/m 0 min 0 min 0 W/m 3,2 km/h (1 Bft) 100,00 %
04.10.2021 07:40 10,6 C 10,0 C 10,0 C 93 % 1015,4 hPa 0,0 l/m 0 min 0 min 0 W/m 3,2 km/h (1 Bft) 97,87 %
04.10.2021 07:42 10,6 C 10,0 C 10,0 C 93 % 1015,3 hPa 0,0 l/m 0 min 0 min 0 W/m 6,4 km/h (2 Bft) 97,87 %
04.10.2021 07:44 10,6 C 10,0 C 10,0 C 93 % 1015,3 hPa 0,0 l/m 0 min 0 min 0 W/m 6,4 km/h (2 Bft) 97,87 %
04.10.2021 07:46 10,6 C 10,0 C 10,0 C 93 % 1015,4 hPa 0,0 l/m 0 min 0 min 0 W/m 3,2 km/h (1 Bft) 95,74 %
04.10.2021 07:48 10,6 C 10,0 C 10,0 C 93 % 1015,3 hPa 0,0 l/m 0 min 0 min 0 W/m 6,4 km/h (2 Bft) 97,83 %
04.10.2021 07:50 10,6 C 10,0 C 10,0 C 93 % 1015,3 hPa 0,0 l/m 0 min 0 min 0 W/m 6,4 km/h (2 Bft) 97,87 %
04.10.2021 07:52 10,6 C 10,0 C 10,0 C 93 % 1015,4 hPa 0,0 l/m 0 min 0 min 0 W/m 9,7 km/h (2 Bft) 97,87 %
04.10.2021 07:54 10,7 C 10,0 C 10,0 C 93 % 1015,5 hPa 0,0 l/m 0 min 0 min 1 W/m 6,4 km/h (2 Bft) 97,87 %
04.10.2021 07:56 10,7 C 10,0 C 10,0 C 93 % 1015,5 hPa 0,0 l/m 0 min 0 min 5 W/m 3,2 km/h (1 Bft) 97,87 %
04.10.2021 07:58 10,7 C 10,0 C 10,0 C 93 % 1015,5 hPa 0,0 l/m 0 min 0 min 5 W/m 6,4 km/h (2 Bft) 97,87 %
04.10.2021 08:00 10,7 C 10,0 C 10,0 C 93 % 1015,5 hPa 0,0 l/m 0 min 0 min 7 W/m 6,4 km/h (2 Bft) 97,87 %
04.10.2021 08:02 10,7 C 10,0 C 10,0 C 93 % 1015,5 hPa 0,0 l/m 0 min 0 min 7 W/m 6,4 km/h (2 Bft) 93,48 %
04.10.2021 08:04 10,7 C 10,0 C 10,0 C 93 % 1015,6 hPa 0,0 l/m 0 min 0 min 9 W/m 6,4 km/h (2 Bft) 95,74 %
04.10.2021 08:06 10,7 C 10,0 C 10,0 C 93 % 1015,6 hPa 0,0 l/m 0 min 0 min 11 W/m 6,4 km/h (2 Bft) 97,87 %
04.10.2021 08:08 10,7 C 10,0 C 10,0 C 93 % 1015,7 hPa 0,0 l/m 0 min 0 min 13 W/m 3,2 km/h (1 Bft) 97,87 %
04.10.2021 08:10 10,7 C 10,0 C 10,0 C 93 % 1015,8 hPa 0,0 l/m 0 min 0 min 17 W/m 6,4 km/h (2 Bft) 95,74 %
04.10.2021 08:12 10,7 C 10,0 C 10,0 C 93 % 1015,9 hPa 0,0 l/m 0 min 0 min 20 W/m 6,4 km/h (2 Bft) 93,62 %
04.10.2021 08:14 10,7 C 10,0 C 10,0 C 93 % 1015,8 hPa 0,0 l/m 0 min 0 min 19 W/m 12,9 km/h (3 Bft) 95,65 %
04.10.2021 08:16 10,7 C 10,0 C 10,0 C 93 % 1015,9 hPa 0,0 l/m 0 min 0 min 19 W/m 12,9 km/h (3 Bft) 93,62 %
04.10.2021 08:18 10,8 C 10,0 C 10,0 C 93 % 1016,0 hPa 0,0 l/m 0 min 0 min 20 W/m 6,4 km/h (2 Bft) 95,83 %
04.10.2021 08:20 10,8 C 10,0 C 10,0 C 93 % 1016,1 hPa 0,0 l/m 0 min 0 min 21 W/m 6,4 km/h (2 Bft) 93,62 %
04.10.2021 08:22 10,8 C 10,0 C 10,0 C 93 % 1016,2 hPa 0,0 l/m 0 min 0 min 21 W/m 6,4 km/h (2 Bft) 95,74 %
04.10.2021 08:24 10,8 C 10,6 C 10,0 C 93 % 1016,2 hPa 0,0 l/m 0 min 0 min 21 W/m 12,9 km/h (3 Bft) 95,65 %
04.10.2021 08:26 10,8 C 10,6 C 10,0 C 93 % 1016,2 hPa 0,0 l/m 0 min 0 min 22 W/m 6,4 km/h (2 Bft) 95,74 %
04.10.2021 08:28 10,8 C 10,6 C 10,6 C 93 % 1016,2 hPa 0,0 l/m 0 min 0 min 26 W/m 3,2 km/h (1 Bft) 95,74 %
04.10.2021 08:30 10,8 C 10,6 C 10,6 C 93 % 1016,2 hPa 0,0 l/m 0 min 0 min 29 W/m 3,2 km/h (1 Bft) 95,74 %
04.10.2021 08:32 10,8 C 10,6 C 10,6 C 93 % 1016,3 hPa 0,0 l/m 0 min 0 min 32 W/m 6,4 km/h (2 Bft) 97,87 %
04.10.2021 08:34 10,8 C 10,6 C 10,6 C 93 % 1016,3 hPa 0,0 l/m 0 min 0 min 36 W/m 6,4 km/h (2 Bft) 93,62 %
04.10.2021 08:36 10,9 C 10,6 C 10,6 C 93 % 1016,3 hPa 0,0 l/m 0 min 0 min 40 W/m 6,4 km/h (2 Bft) 95,65 %
04.10.2021 08:38 10,9 C 10,6 C 10,6 C 93 % 1016,4 hPa 0,0 l/m 0 min 0 min 44 W/m 6,4 km/h (2 Bft) 95,74 %
04.10.2021 08:40 10,9 C 10,6 C 10,6 C 93 % 1016,4 hPa 0,0 l/m 0 min 0 min 46 W/m 6,4 km/h (2 Bft) 97,87 %
04.10.2021 08:42 10,9 C 10,6 C 10,6 C 93 % 1016,3 hPa 0,0 l/m 0 min 0 min 46 W/m 16,1 km/h (3 Bft) 95,74 %
04.10.2021 08:44 10,9 C 10,6 C 10,6 C 93 % 1016,4 hPa 0,0 l/m 0 min 0 min 48 W/m 6,4 km/h (2 Bft) 97,87 %
04.10.2021 08:45 10,9 C 10,6 C 10,6 C 93 % 1016,5 hPa 0,0 l/m 0 min 0 min 54 W/m 6,4 km/h (2 Bft) 97,87 %
04.10.2021 08:48 11,0 C 10,6 C 10,6 C 93 % 1016,3 hPa 0,0 l/m 0 min 0 min 58 W/m 12,9 km/h (3 Bft) 97,83 %
04.10.2021 08:50 11,0 C 10,6 C 10,6 C 93 % 1016,2 hPa 0,0 l/m 0 min 0 min 55 W/m 6,4 km/h (2 Bft) 97,92 %
04.10.2021 08:52 11,0 C 10,6 C 10,6 C 93 % 1016,2 hPa 0,0 l/m 0 min 0 min 53 W/m 6,4 km/h (2 Bft) 94,29 %
04.10.2021 08:54 11,0 C 11,1 C 10,6 C 93 % 1016,2 hPa 0,0 l/m 0 min 0 min 49 W/m 6,4 km/h (2 Bft) 98,18 %
04.10.2021 08:56 11,1 C 11,1 C 10,6 C 93 % 1016,2 hPa 0,0 l/m 0 min 0 min 47 W/m 6,4 km/h (2 Bft) 98,00 %
04.10.2021 08:58 11,1 C 11,1 C 10,6 C 93 % 1016,2 hPa 0,0 l/m 0 min 0 min 49 W/m 6,4 km/h (2 Bft) 100,00 %
04.10.2021 09:00 11,1 C 11,1 C 10,6 C 93 % 1016,2 hPa 0,0 l/m 0 min 0 min 54 W/m 6,4 km/h (2 Bft) 100,00 %
04.10.2021 09:02 11,1 C 11,1 C 10,6 C 93 % 1016,2 hPa 0,0 l/m 0 min 0 min 61 W/m 6,4 km/h (2 Bft) 95,92 %
04.10.2021 09:04 11,2 C 11,1 C 10,6 C 93 % 1016,3 hPa 0,0 l/m 0 min 0 min 69 W/m 6,4 km/h (2 Bft) 96,08 %
04.10.2021 09:06 11,2 C 11,1 C 11,1 C 93 % 1016,2 hPa 0,0 l/m 0 min 0 min 79 W/m 6,4 km/h (2 Bft) 97,87 %
04.10.2021 09:08 11,2 C 11,1 C 11,1 C 93 % 1016,2 hPa 0,0 l/m 0 min 0 min 92 W/m 6,4 km/h (2 Bft) 97,87 %
04.10.2021 09:10 11,3 C 11,1 C 11,1 C 93 % 1016,2 hPa 0,0 l/m 0 min 0 min 103 W/m 3,2 km/h (1 Bft) 97,83 %
04.10.2021 09:12 11,3 C 11,1 C 11,1 C 93 % 1016,3 hPa 0,0 l/m 0 min 0 min 102 W/m 6,4 km/h (2 Bft) 97,67 %
04.10.2021 09:14 11,4 C 11,1 C 11,1 C 93 % 1016,4 hPa 0,0 l/m 0 min 0 min 95 W/m 6,4 km/h (2 Bft) 98,00 %
04.10.2021 09:16 11,4 C 11,7 C 11,1 C 93 % 1016,4 hPa 0,0 l/m 0 min 0 min 87 W/m 9,7 km/h (2 Bft) 95,83 %
04.10.2021 09:18 11,4 C 11,7 C 11,1 C 93 % 1016,5 hPa 0,0 l/m 0 min 0 min 77 W/m 6,4 km/h (2 Bft) 97,87 %
04.10.2021 09:20 11,4 C 11,7 C 11,1 C 93 % 1016,5 hPa 0,0 l/m 0 min 0 min 72 W/m 9,7 km/h (2 Bft) 97,87 %
04.10.2021 09:22 11,5 C 11,7 C 11,1 C 93 % 1016,6 hPa 0,0 l/m 0 min 0 min 69 W/m 6,4 km/h (2 Bft) 97,67 %
04.10.2021 09:24 11,5 C 11,7 C 11,1 C 93 % 1016,5 hPa 0,0 l/m 0 min 0 min 69 W/m 6,4 km/h (2 Bft) 97,96 %
04.10.2021 09:26 11,5 C 11,7 C 11,1 C 93 % 1016,4 hPa 0,0 l/m 0 min 0 min 67 W/m 6,4 km/h (2 Bft) 100,00 %
04.10.2021 09:28 11,5 C 11,7 C 11,1 C 93 % 1016,4 hPa 0,0 l/m 0 min 0 min 63 W/m 12,9 km/h (3 Bft) 97,87 %
04.10.2021 09:30 11,6 C 11,7 C 11,1 C 93 % 1016,5 hPa 0,0 l/m 0 min 0 min 60 W/m 12,9 km/h (3 Bft) 97,67 %
04.10.2021 09:32 11,6 C 11,7 C 11,1 C 93 % 1016,5 hPa 0,0 l/m 0 min 0 min 62 W/m 6,4 km/h (2 Bft) 98,00 %
04.10.2021 09:34 11,6 C 11,7 C 11,1 C 93 % 1016,5 hPa 0,0 l/m 0 min 0 min 62 W/m 6,4 km/h (2 Bft) 100,00 %
04.10.2021 09:36 11,6 C 11,7 C 11,1 C 92 % 1016,5 hPa 0,0 l/m 0 min 0 min 63 W/m 6,4 km/h (2 Bft) 100,00 %
04.10.2021 09:38 11,6 C 11,7 C 11,1 C 92 % 1016,5 hPa 0,0 l/m 0 min 0 min 63 W/m 6,4 km/h (2 Bft) 100,00 %
04.10.2021 09:40 11,7 C 11,7 C 11,1 C 92 % 1016,4 hPa 0,0 l/m 0 min 0 min 62 W/m 6,4 km/h (2 Bft) 100,00 %
04.10.2021 09:42 11,7 C 11,7 C 11,1 C 92 % 1016,4 hPa 0,0 l/m 0 min 0 min 64 W/m 3,2 km/h (1 Bft) 100,00 %
04.10.2021 09:44 11,7 C 11,7 C 11,1 C 92 % 1016,5 hPa 0,0 l/m 0 min 0 min 69 W/m 6,4 km/h (2 Bft) 95,83 %
04.10.2021 09:46 11,8 C 11,7 C 11,1 C 92 % 1016,6 hPa 0,0 l/m 0 min 0 min 73 W/m 6,4 km/h (2 Bft) 91,30 %
04.10.2021 09:48 11,8 C 11,7 C 11,1 C 92 % 1016,6 hPa 0,0 l/m 0 min 0 min 76 W/m 16,1 km/h (3 Bft) 97,87 %
04.10.2021 09:50 11,8 C 11,7 C 11,1 C 92 % 1016,6 hPa 0,0 l/m 0 min 0 min 76 W/m 6,4 km/h (2 Bft) 100,00 %
04.10.2021 09:52 11,8 C 11,7 C 11,1 C 92 % 1016,6 hPa 0,0 l/m 0 min 0 min 74 W/m 6,4 km/h (2 Bft) 100,00 %
04.10.2021 09:54 11,9 C 11,7 C 11,1 C 92 % 1016,7 hPa 0,0 l/m 0 min 0 min 69 W/m 12,9 km/h (3 Bft) 100,00 %
04.10.2021 09:56 11,9 C 11,7 C 11,1 C 92 % 1016,6 hPa 0,0 l/m 0 min 0 min 61 W/m 12,9 km/h (3 Bft) 100,00 %
04.10.2021 09:58 11,9 C 11,7 C 11,1 C 92 % 1016,6 hPa 0,0 l/m 0 min 0 min 54 W/m 6,4 km/h (2 Bft) 100,00 %
04.10.2021 10:00 11,9 C 11,7 C 11,1 C 92 % 1016,7 hPa 0,0 l/m 0 min 0 min 51 W/m 9,7 km/h (2 Bft) 100,00 %
04.10.2021 10:02 11,9 C 11,7 C 11,1 C 92 % 1016,7 hPa 0,0 l/m 0 min 0 min 59 W/m 9,7 km/h (2 Bft) 100,00 %
04.10.2021 10:04 12,0 C 11,7 C 11,1 C 92 % 1016,6 hPa 0,0 l/m 0 min 0 min 70 W/m 12,9 km/h (3 Bft) 100,00 %
04.10.2021 10:06 12,0 C 11,7 C 11,7 C 91 % 1016,6 hPa 0,0 l/m 0 min 0 min 75 W/m 6,4 km/h (2 Bft) 100,00 %
04.10.2021 10:08 12,0 C 11,7 C 11,7 C 91 % 1016,5 hPa 0,0 l/m 0 min 0 min 77 W/m 6,4 km/h (2 Bft) 100,00 %
04.10.2021 10:10 12,0 C 12,2 C 11,7 C 91 % 1016,5 hPa 0,0 l/m 0 min 0 min 83 W/m 6,4 km/h (2 Bft) 100,00 %
04.10.2021 10:12 12,1 C 12,2 C 11,7 C 91 % 1016,5 hPa 0,0 l/m 0 min 0 min 95 W/m 12,9 km/h (3 Bft) 100,00 %
04.10.2021 10:14 12,1 C 12,2 C 11,7 C 91 % 1016,5 hPa 0,0 l/m 0 min 0 min 105 W/m 6,4 km/h (2 Bft) 100,00 %
04.10.2021 10:16 12,1 C 12,2 C 11,7 C 91 % 1016,5 hPa 0,0 l/m 0 min 0 min 114 W/m 6,4 km/h (2 Bft) 97,87 %
04.10.2021 10:18 12,2 C 12,2 C 11,7 C 91 % 1016,5 hPa 0,0 l/m 0 min 0 min 119 W/m 6,4 km/h (2 Bft) 100,00 %
04.10.2021 10:20 12,2 C 12,2 C 11,7 C 91 % 1016,5 hPa 0,0 l/m 0 min 0 min 130 W/m 16,1 km/h (3 Bft) 100,00 %
04.10.2021 10:22 12,3 C 12,2 C 11,7 C 91 % 1016,5 hPa 0,0 l/m 0 min 0 min 153 W/m 6,4 km/h (2 Bft) 100,00 %
04.10.2021 10:24 12,3 C 12,8 C 11,7 C 91 % 1016,5 hPa 0,0 l/m 0 min 0 min 169 W/m 12,9 km/h (3 Bft) 100,00 %
04.10.2021 10:26 12,4 C 12,8 C 12,3 C 91 % 1016,5 hPa 0,0 l/m 0 min 0 min 183 W/m 3,2 km/h (1 Bft) 97,87 %
04.10.2021 10:28 12,4 C 12,8 C 12,3 C 90 % 1016,4 hPa 0,0 l/m 0 min 0 min 177 W/m 3,2 km/h (1 Bft) 87,23 %
04.10.2021 10:30 12,5 C 12,8 C 12,3 C 90 % 1016,5 hPa 0,0 l/m 0 min 0 min 169 W/m 12,9 km/h (3 Bft) 95,74 %
04.10.2021 10:32 12,5 C 12,8 C 12,3 C 90 % 1016,6 hPa 0,0 l/m 0 min 0 min 153 W/m 12,9 km/h (3 Bft) 97,87 %
04.10.2021 10:34 12,6 C 12,8 C 12,3 C 90 % 1016,6 hPa 0,0 l/m 0 min 0 min 133 W/m 9,7 km/h (2 Bft) 97,83 %
04.10.2021 10:36 12,6 C 12,8 C 12,3 C 90 % 1016,6 hPa 0,0 l/m 0 min 0 min 126 W/m 12,9 km/h (3 Bft) 97,87 %
04.10.2021 10:38 12,6 C 12,8 C 12,3 C 90 % 1016,6 hPa 0,0 l/m 0 min 0 min 140 W/m 16,1 km/h (3 Bft) 95,74 %
04.10.2021 10:40 12,7 C 12,8 C 12,3 C 89 % 1016,6 hPa 0,0 l/m 0 min 0 min 148 W/m 12,9 km/h (3 Bft) 97,87 %
04.10.2021 10:42 12,8 C 12,8 C 12,3 C 89 % 1016,6 hPa 0,0 l/m 0 min 0 min 164 W/m 12,9 km/h (3 Bft) 97,87 %
04.10.2021 10:44 12,8 C 12,8 C 12,3 C 89 % 1016,6 hPa 0,0 l/m 0 min 0 min 171 W/m 16,1 km/h (3 Bft) 95,74 %
04.10.2021 10:46 12,9 C 13,3 C 12,3 C 89 % 1016,6 hPa 0,0 l/m 0 min 0 min 169 W/m 6,4 km/h (2 Bft) 95,65 %
04.10.2021 10:48 12,9 C 13,3 C 12,3 C 89 % 1016,5 hPa 0,0 l/m 0 min 0 min 196 W/m 12,9 km/h (3 Bft) 95,74 %
04.10.2021 10:50 13,0 C 13,3 C 12,8 C 89 % 1016,6 hPa 0,0 l/m 0 min 0 min 190 W/m 6,4 km/h (2 Bft) 95,74 %
04.10.2021 10:52 13,0 C 13,3 C 12,8 C 89 % 1016,6 hPa 0,0 l/m 0 min 0 min 192 W/m 6,4 km/h (2 Bft) 97,87 %
04.10.2021 10:54 13,1 C 13,9 C 12,8 C 88 % 1016,6 hPa 0,0 l/m 0 min 0 min 198 W/m 12,9 km/h (3 Bft) 95,74 %
04.10.2021 10:56 13,2 C 13,9 C 12,8 C 88 % 1016,6 hPa 0,0 l/m 0 min 0 min 192 W/m 12,9 km/h (3 Bft) 95,74 %
04.10.2021 10:58 13,3 C 13,9 C 12,8 C 88 % 1016,6 hPa 0,0 l/m 0 min 0 min 193 W/m 12,9 km/h (3 Bft) 97,83 %
04.10.2021 11:00 13,3 C 13,9 C 12,8 C 88 % 1016,6 hPa 0,0 l/m 0 min 0 min 192 W/m 16,1 km/h (3 Bft) 97,87 %
04.10.2021 11:02 13,4 C 13,9 C 13,4 C 87 % 1016,6 hPa 0,0 l/m 0 min 0 min 185 W/m 6,4 km/h (2 Bft) 93,62 %
04.10.2021 11:04 13,4 C 14,4 C 13,4 C 87 % 1016,6 hPa 0,0 l/m 0 min 0 min 178 W/m 9,7 km/h (2 Bft) 93,62 %
04.10.2021 11:06 13,5 C 14,4 C 13,4 C 87 % 1016,6 hPa 0,0 l/m 0 min 0 min 190 W/m 12,9 km/h (3 Bft) 93,62 %
04.10.2021 11:08 13,6 C 14,4 C 13,4 C 87 % 1016,6 hPa 0,0 l/m 0 min 0 min 212 W/m 16,1 km/h (3 Bft) 95,74 %
04.10.2021 11:10 13,7 C 14,4 C 13,9 C 86 % 1016,7 hPa 0,0 l/m 2 min 0 min 253 W/m 16,1 km/h (3 Bft) 93,48 %
04.10.2021 11:12 13,8 C 15,0 C 13,9 C 86 % 1016,6 hPa 0,0 l/m 2 min 0 min 238 W/m 6,4 km/h (2 Bft) 95,74 %
04.10.2021 11:14 13,9 C 15,6 C 14,5 C 86 % 1016,7 hPa 0,0 l/m 2 min 0 min 290 W/m 19,3 km/h (3 Bft) 93,62 %
04.10.2021 11:16 14,0 C 16,1 C 15,0 C 86 % 1016,6 hPa 0,0 l/m 2 min 0 min 336 W/m 12,9 km/h (3 Bft) 93,62 %
04.10.2021 11:18 14,2 C 16,7 C 15,6 C 85 % 1016,6 hPa 0,0 l/m 2 min 0 min 416 W/m 19,3 km/h (3 Bft) 93,62 %
04.10.2021 11:20 14,2 C 16,7 C 15,6 C 85 % 1016,7 hPa 0,0 l/m 2 min 0 min 271 W/m 6,4 km/h (2 Bft) 95,65 %
04.10.2021 11:22 14,3 C 16,7 C 16,1 C 84 % 1016,8 hPa 0,0 l/m 2 min 0 min 351 W/m 16,1 km/h (3 Bft) 95,74 %
04.10.2021 11:24 14,5 C 16,7 C 16,1 C 84 % 1016,8 hPa 0,0 l/m 2 min 0 min 245 W/m 12,9 km/h (3 Bft) 93,62 %
04.10.2021 11:26 14,5 C 17,8 C 16,7 C 83 % 1016,8 hPa 0,0 l/m 2 min 0 min 394 W/m 12,9 km/h (3 Bft) 72,34 %
04.10.2021 11:28 14,7 C 17,8 C 16,7 C 83 % 1016,9 hPa 0,0 l/m 2 min 0 min 346 W/m 12,9 km/h (3 Bft) 75,00 %
04.10.2021 11:30 14,9 C 17,2 C 16,7 C 82 % 1016,8 hPa 0,0 l/m 2 min 0 min 271 W/m 16,1 km/h (3 Bft) 95,74 %
04.10.2021 11:32 15,0 C 17,2 C 16,7 C 81 % 1016,9 hPa 0,0 l/m 2 min 0 min 402 W/m 19,3 km/h (3 Bft) 95,65 %
04.10.2021 11:34 15,0 C 17,8 C 17,3 C 80 % 1016,9 hPa 0,0 l/m 2 min 0 min 427 W/m 22,5 km/h (4 Bft) 95,74 %
04.10.2021 11:36 15,1 C 18,3 C 17,3 C 80 % 1016,9 hPa 0,0 l/m 2 min 0 min 365 W/m 12,9 km/h (3 Bft) 95,74 %
04.10.2021 11:38 15,3 C 18,9 C 17,8 C 79 % 1016,9 hPa 0,0 l/m 2 min 0 min 411 W/m 19,3 km/h (3 Bft) 97,87 %
04.10.2021 11:40 15,4 C 18,9 C 17,8 C 79 % 1016,9 hPa 0,0 l/m 2 min 0 min 481 W/m 22,5 km/h (4 Bft) 100,00 %
04.10.2021 11:42 15,5 C 18,9 C 17,8 C 78 % 1016,9 hPa 0,0 l/m 2 min 0 min 485 W/m 16,1 km/h (3 Bft) 97,87 %
04.10.2021 11:44 15,6 C 18,3 C 17,8 C 78 % 1016,9 hPa 0,0 l/m 2 min 0 min 353 W/m 16,1 km/h (3 Bft) 97,83 %
04.10.2021 11:46 15,6 C 18,3 C 17,3 C 77 % 1016,8 hPa 0,0 l/m 2 min 0 min 290 W/m 22,5 km/h (4 Bft) 97,87 %
04.10.2021 11:48 15,7 C 18,3 C 17,3 C 77 % 1016,8 hPa 0,0 l/m 2 min 0 min 384 W/m 25,7 km/h (4 Bft) 97,87 %
04.10.2021 11:50 15,8 C 17,8 C 17,3 C 76 % 1016,8 hPa 0,0 l/m 0 min 0 min 250 W/m 29,0 km/h (5 Bft) 97,87 %
04.10.2021 11:52 15,7 C 17,2 C 17,3 C 76 % 1016,8 hPa 0,0 l/m 0 min 0 min 208 W/m 19,3 km/h (3 Bft) 97,87 %
04.10.2021 11:54 15,7 C 17,2 C 16,7 C 76 % 1016,8 hPa 0,0 l/m 0 min 0 min 162 W/m 16,1 km/h (3 Bft) 97,87 %
04.10.2021 11:56 15,8 C 18,3 C 17,3 C 76 % 1016,9 hPa 0,0 l/m 0 min 0 min 142 W/m 22,5 km/h (4 Bft) 97,83 %
04.10.2021 11:58 15,8 C 18,9 C 17,3 C 76 % 1016,8 hPa 0,0 l/m 2 min 0 min 275 W/m 16,1 km/h (3 Bft) 93,62 %
04.10.2021 12:00 15,9 C 18,9 C 17,3 C 75 % 1016,8 hPa 0,0 l/m 2 min 0 min 466 W/m 16,1 km/h (3 Bft) 97,87 %
04.10.2021 12:02 16,0 C 19,4 C 17,8 C 75 % 1016,9 hPa 0,0 l/m 2 min 0 min 502 W/m 22,5 km/h (4 Bft) 97,87 %
04.10.2021 12:04 16,0 C 18,9 C 17,3 C 75 % 1016,8 hPa 0,0 l/m 2 min 0 min 439 W/m 19,3 km/h (3 Bft) 100,00 %
04.10.2021 12:08 16,1 C 18,3 C 16,7 C 73 % 1016,9 hPa 0,0 l/m 0 min 0 min 230 W/m 22,5 km/h (4 Bft) 100,00 %
04.10.2021 12:10 16,1 C 18,9 C 16,7 C 73 % 1016,8 hPa 0,0 l/m 0 min 0 min 136 W/m 16,1 km/h (3 Bft) 100,00 %
04.10.2021 12:12 16,2 C 18,3 C 16,7 C 73 % 1016,9 hPa 0,0 l/m 0 min 0 min 147 W/m 25,7 km/h (4 Bft) 97,87 %
04.10.2021 12:14 16,3 C 17,8 C 16,1 C 73 % 1016,9 hPa 0,0 l/m 0 min 0 min 169 W/m 19,3 km/h (3 Bft) 100,00 %
04.10.2021 12:16 16,3 C 17,2 C 16,1 C 73 % 1016,9 hPa 0,0 l/m 0 min 0 min 172 W/m 35,4 km/h (5 Bft) 100,00 %
04.10.2021 12:18 16,4 C 17,2 C 16,1 C 74 % 1016,9 hPa 0,0 l/m 0 min 0 min 171 W/m 22,5 km/h (4 Bft) 100,00 %
04.10.2021 12:20 16,4 C 17,2 C 15,6 C 74 % 1017,0 hPa 0,0 l/m 0 min 0 min 197 W/m 22,5 km/h (4 Bft) 97,87 %
04.10.2021 12:22 16,5 C 17,2 C 15,6 C 73 % 1017,0 hPa 0,0 l/m 0 min 0 min 224 W/m 25,7 km/h (4 Bft) 100,00 %
04.10.2021 12:24 16,5 C 17,2 C 15,6 C 74 % 1017,0 hPa 0,0 l/m 0 min 0 min 216 W/m 22,5 km/h (4 Bft) 100,00 %
04.10.2021 12:26 16,5 C 16,7 C 15,6 C 73 % 1017,1 hPa 0,2 l/m 0 min 0 min 231 W/m 22,5 km/h (4 Bft) 100,00 %
04.10.2021 12:28 16,5 C 16,7 C 15,6 C 73 % 1017,0 hPa 0,0 l/m 0 min 0 min 245 W/m 19,3 km/h (3 Bft) 95,65 %
04.10.2021 12:30 16,6 C 16,7 C 15,6 C 72 % 1016,9 hPa 0,0 l/m 0 min 0 min 234 W/m 29,0 km/h (5 Bft) 100,00 %
04.10.2021 12:32 16,5 C 16,7 C 15,6 C 72 % 1017,0 hPa 0,0 l/m 0 min 0 min 214 W/m 19,3 km/h (3 Bft) 100,00 %
04.10.2021 12:34 16,5 C 16,1 C 15,0 C 71 % 1017,0 hPa 0,0 l/m 0 min 0 min 189 W/m 45,1 km/h (6 Bft) 100,00 %
04.10.2021 12:36 16,4 C 16,1 C 15,0 C 72 % 1017,0 hPa 0,0 l/m 0 min 0 min 195 W/m 25,7 km/h (4 Bft) 97,87 %
04.10.2021 12:38 16,3 C 16,1 C 15,0 C 73 % 1016,9 hPa 0,0 l/m 0 min 0 min 206 W/m 19,3 km/h (3 Bft) 100,00 %
04.10.2021 12:40 16,3 C 16,1 C 15,0 C 73 % 1016,9 hPa 0,0 l/m 0 min 0 min 217 W/m 19,3 km/h (3 Bft) 100,00 %
04.10.2021 12:42 16,3 C 16,1 C 15,0 C 73 % 1016,9 hPa 0,0 l/m 0 min 0 min 215 W/m 16,1 km/h (3 Bft) 97,87 %
04.10.2021 12:44 16,3 C 16,1 C 15,0 C 73 % 1016,9 hPa 0,0 l/m 0 min 0 min 221 W/m 19,3 km/h (3 Bft) 100,00 %
04.10.2021 12:46 16,3 C 16,1 C 15,0 C 73 % 1016,8 hPa 0,0 l/m 0 min 0 min 190 W/m 19,3 km/h (3 Bft) 100,00 %
04.10.2021 12:48 16,3 C 16,1 C 15,0 C 73 % 1016,9 hPa 0,0 l/m 0 min 0 min 185 W/m 29,0 km/h (5 Bft) 100,00 %
04.10.2021 12:50 16,3 C 16,7 C 15,0 C 73 % 1016,9 hPa 0,0 l/m 0 min 0 min 223 W/m 16,1 km/h (3 Bft) 97,87 %
04.10.2021 12:52 16,4 C 16,7 C 15,0 C 73 % 1016,8 hPa 0,0 l/m 0 min 0 min 217 W/m 19,3 km/h (3 Bft) 100,00 %
04.10.2021 12:54 16,5 C 16,7 C 15,0 C 73 % 1016,9 hPa 0,0 l/m 0 min 0 min 206 W/m 19,3 km/h (3 Bft) 100,00 %
04.10.2021 12:56 16,5 C 16,7 C 15,0 C 72 % 1016,9 hPa 0,0 l/m 0 min 0 min 208 W/m 25,7 km/h (4 Bft) 97,87 %
04.10.2021 12:58 16,6 C 16,7 C 15,0 C 71 % 1016,8 hPa 0,0 l/m 0 min 0 min 191 W/m 29,0 km/h (5 Bft) 100,00 %
04.10.2021 13:00 16,6 C 16,7 C 15,0 C 71 % 1016,9 hPa 0,0 l/m 0 min 0 min 174 W/m 35,4 km/h (5 Bft) 100,00 %
04.10.2021 13:02 16,6 C 16,7 C 15,0 C 71 % 1016,8 hPa 0,0 l/m 0 min 0 min 150 W/m 22,5 km/h (4 Bft) 100,00 %
04.10.2021 13:04 16,6 C 16,1 C 15,0 C 70 % 1016,9 hPa 0,0 l/m 0 min 0 min 141 W/m 16,1 km/h (3 Bft) 95,74 %
04.10.2021 13:06 16,5 C 16,1 C 15,0 C 70 % 1016,8 hPa 0,0 l/m 0 min 0 min 123 W/m 25,7 km/h (4 Bft) 97,87 %
04.10.2021 13:08 16,5 C 16,1 C 15,0 C 70 % 1016,8 hPa 0,0 l/m 0 min 0 min 114 W/m 19,3 km/h (3 Bft) 95,74 %
04.10.2021 13:10 16,6 C 16,1 C 15,0 C 70 % 1016,9 hPa 0,0 l/m 0 min 0 min 101 W/m 19,3 km/h (3 Bft) 95,74 %
04.10.2021 13:12 16,6 C 16,1 C 15,0 C 70 % 1016,9 hPa 0,0 l/m 0 min 0 min 110 W/m 12,9 km/h (3 Bft) 97,87 %
04.10.2021 13:14 16,6 C 16,1 C 15,0 C 69 % 1016,9 hPa 0,0 l/m 0 min 0 min 106 W/m 48,3 km/h (6 Bft) 95,74 %
04.10.2021 13:16 16,6 C 16,1 C 15,0 C 69 % 1017,0 hPa 0,0 l/m 0 min 0 min 87 W/m 29,0 km/h (5 Bft) 93,48 %
04.10.2021 13:18 16,6 C 16,1 C 14,5 C 69 % 1016,9 hPa 0,0 l/m 0 min 0 min 172 W/m 29,0 km/h (5 Bft) 95,74 %
04.10.2021 13:20 16,6 C 16,7 C 15,0 C 69 % 1016,9 hPa 0,0 l/m 0 min 0 min 140 W/m 25,7 km/h (4 Bft) 95,74 %
04.10.2021 13:22 16,7 C 16,7 C 15,0 C 69 % 1016,9 hPa 0,0 l/m 0 min 0 min 126 W/m 25,7 km/h (4 Bft) 95,74 %
04.10.2021 13:24 16,8 C 16,7 C 15,0 C 69 % 1016,9 hPa 0,0 l/m 2 min 0 min 298 W/m 35,4 km/h (5 Bft) 95,74 %
04.10.2021 13:26 16,9 C 16,7 C 15,0 C 68 % 1016,8 hPa 0,0 l/m 0 min 0 min 178 W/m 19,3 km/h (3 Bft) 93,48 %
04.10.2021 13:28 17,0 C 16,7 C 15,0 C 68 % 1016,8 hPa 0,0 l/m 0 min 0 min 80 W/m 16,1 km/h (3 Bft) 95,74 %
04.10.2021 13:30 17,0 C 16,7 C 15,0 C 67 % 1016,8 hPa 0,0 l/m 0 min 0 min 77 W/m 38,6 km/h (5 Bft) 93,62 %
04.10.2021 13:32 17,1 C 16,7 C 15,0 C 67 % 1016,8 hPa 0,0 l/m 0 min 0 min 70 W/m 25,7 km/h (4 Bft) 93,62 %
04.10.2021 13:34 17,1 C 16,7 C 15,0 C 65 % 1016,7 hPa 0,0 l/m 0 min 0 min 77 W/m 25,7 km/h (4 Bft) 93,62 %
04.10.2021 13:36 17,1 C 17,2 C 15,0 C 66 % 1016,7 hPa 0,0 l/m 0 min 0 min 165 W/m 16,1 km/h (3 Bft) 95,74 %
04.10.2021 13:38 17,3 C 17,2 C 15,0 C 66 % 1016,8 hPa 0,0 l/m 0 min 0 min 270 W/m 22,5 km/h (4 Bft) 97,83 %
04.10.2021 13:40 17,4 C 17,2 C 15,0 C 64 % 1016,7 hPa 0,0 l/m 2 min 0 min 306 W/m 32,2 km/h (5 Bft) 97,87 %
04.10.2021 13:42 17,4 C 17,8 C 15,0 C 62 % 1016,8 hPa 0,0 l/m 2 min 0 min 456 W/m 41,8 km/h (6 Bft) 95,74 %
04.10.2021 13:44 17,4 C 17,8 C 15,0 C 62 % 1016,7 hPa 0,0 l/m 2 min 0 min 635 W/m 29,0 km/h (5 Bft) 97,87 %
04.10.2021 13:46 17,5 C 18,3 C 15,0 C 61 % 1016,7 hPa 0,0 l/m 2 min 0 min 604 W/m 35,4 km/h (5 Bft) 95,74 %
04.10.2021 13:48 17,5 C 18,9 C 15,0 C 61 % 1016,7 hPa 0,0 l/m 2 min 0 min 636 W/m 22,5 km/h (4 Bft) 95,74 %
04.10.2021 13:50 17,6 C 19,4 C 15,0 C 61 % 1016,7 hPa 0,0 l/m 2 min 0 min 602 W/m 35,4 km/h (5 Bft) 97,83 %
04.10.2021 13:52 17,6 C 19,4 C 15,0 C 60 % 1016,7 hPa 0,0 l/m 2 min 0 min 632 W/m 41,8 km/h (6 Bft) 95,74 %
04.10.2021 13:54 17,7 C 20,6 C 15,0 C 60 % 1016,6 hPa 0,0 l/m 2 min 0 min 642 W/m 22,5 km/h (4 Bft) 95,74 %
04.10.2021 13:56 17,8 C 21,1 C 15,0 C 60 % 1016,7 hPa 0,0 l/m 2 min 0 min 637 W/m 35,4 km/h (5 Bft) 100,00 %
04.10.2021 13:58 17,8 C 22,2 C 15,0 C 60 % 1016,7 hPa 0,0 l/m 2 min 0 min 631 W/m 29,0 km/h (5 Bft) 100,00 %
04.10.2021 14:00 17,9 C 23,3 C 15,0 C 60 % 1016,7 hPa 0,0 l/m 2 min 0 min 631 W/m 19,3 km/h (3 Bft) 100,00 %
04.10.2021 14:02 18,0 C 24,4 C 15,0 C 60 % 1016,7 hPa 0,0 l/m 2 min 0 min 629 W/m 12,9 km/h (3 Bft) 97,83 %
04.10.2021 14:04 18,0 C 24,4 C 15,0 C 59 % 1016,7 hPa 0,0 l/m 2 min 0 min 629 W/m 35,4 km/h (5 Bft) 100,00 %
04.10.2021 14:06 18,0 C 24,4 C 15,0 C 59 % 1016,7 hPa 0,0 l/m 2 min 0 min 611 W/m 22,5 km/h (4 Bft) 97,87 %
04.10.2021 14:08 18,1 C 25,0 C 15,0 C 60 % 1016,6 hPa 0,0 l/m 2 min 0 min 546 W/m 29,0 km/h (5 Bft) 100,00 %
04.10.2021 14:10 18,1 C 24,4 C 15,0 C 59 % 1016,6 hPa 0,0 l/m 2 min 0 min 622 W/m 29,0 km/h (5 Bft) 97,87 %
04.10.2021 14:12 18,1 C 25,0 C 15,0 C 60 % 1016,7 hPa 0,0 l/m 2 min 0 min 613 W/m 19,3 km/h (3 Bft) 100,00 %
04.10.2021 14:14 18,2 C 24,4 C 15,0 C 59 % 1016,6 hPa 0,0 l/m 2 min 0 min 611 W/m 38,6 km/h (5 Bft) 97,83 %
04.10.2021 14:16 18,3 C 24,4 C 15,0 C 58 % 1016,6 hPa 0,0 l/m 2 min 0 min 615 W/m 35,4 km/h (5 Bft) 97,87 %
04.10.2021 14:18 18,3 C 23,9 C 15,0 C 59 % 1016,6 hPa 0,0 l/m 2 min 0 min 613 W/m 35,4 km/h (5 Bft) 97,87 %
04.10.2021 14:20 18,2 C 23,9 C 15,0 C 58 % 1016,7 hPa 0,0 l/m 2 min 0 min 613 W/m 29,0 km/h (5 Bft) 97,87 %
04.10.2021 14:22 18,1 C 23,3 C 15,0 C 58 % 1016,6 hPa 0,0 l/m 2 min 0 min 610 W/m 38,6 km/h (5 Bft) 97,87 %
04.10.2021 14:24 18,1 C 23,3 C 15,0 C 58 % 1016,6 hPa 0,0 l/m 2 min 0 min 606 W/m 32,2 km/h (5 Bft) 97,83 %
04.10.2021 14:26 18,1 C 23,3 C 15,0 C 59 % 1016,6 hPa 0,0 l/m 2 min 0 min 603 W/m 19,3 km/h (3 Bft) 97,87 %
04.10.2021 14:28 18,1 C 22,8 C 15,0 C 58 % 1016,6 hPa 0,0 l/m 2 min 0 min 600 W/m 35,4 km/h (5 Bft) 97,87 %
04.10.2021 14:30 18,0 C 21,7 C 15,0 C 58 % 1016,6 hPa 0,0 l/m 2 min 0 min 598 W/m 35,4 km/h (5 Bft) 97,87 %
04.10.2021 14:32 18,0 C 20,6 C 15,0 C 59 % 1016,5 hPa 0,0 l/m 2 min 0 min 598 W/m 35,4 km/h (5 Bft) 97,87 %
04.10.2021 14:34 18,1 C 19,4 C 15,0 C 59 % 1016,5 hPa 0,0 l/m 2 min 0 min 600 W/m 22,5 km/h (4 Bft) 97,87 %
04.10.2021 14:36 18,1 C 18,9 C 15,0 C 58 % 1016,5 hPa 0,0 l/m 2 min 0 min 606 W/m 29,0 km/h (5 Bft) 97,83 %
04.10.2021 14:38 18,0 C 18,9 C 15,0 C 58 % 1016,5 hPa 0,0 l/m 2 min 0 min 604 W/m 48,3 km/h (6 Bft) 95,74 %
04.10.2021 14:40 18,1 C 18,9 C 15,0 C 58 % 1016,5 hPa 0,0 l/m 2 min 0 min 603 W/m 22,5 km/h (4 Bft) 97,87 %
04.10.2021 14:42 18,1 C 18,9 C 15,0 C 59 % 1016,5 hPa 0,0 l/m 2 min 0 min 605 W/m 25,7 km/h (4 Bft) 97,87 %
04.10.2021 14:44 18,3 C 18,9 C 15,0 C 59 % 1016,5 hPa 0,0 l/m 2 min 0 min 606 W/m 35,4 km/h (5 Bft) 97,87 %
04.10.2021 14:46 18,3 C 18,3 C 15,0 C 58 % 1016,4 hPa 0,0 l/m 2 min 0 min 599 W/m 22,5 km/h (4 Bft) 97,87 %
04.10.2021 14:48 18,2 C 18,3 C 15,0 C 58 % 1016,4 hPa 0,0 l/m 2 min 0 min 596 W/m 54,7 km/h (7 Bft) 97,83 %
04.10.2021 14:50 18,2 C 17,8 C 15,0 C 59 % 1016,4 hPa 0,0 l/m 2 min 0 min 588 W/m 16,1 km/h (3 Bft) 95,74 %
04.10.2021 14:52 18,3 C 18,3 C 15,0 C 58 % 1016,4 hPa 0,0 l/m 2 min 0 min 585 W/m 35,4 km/h (5 Bft) 97,87 %
04.10.2021 14:54 18,3 C 18,3 C 15,0 C 59 % 1016,4 hPa 0,0 l/m 2 min 0 min 577 W/m 25,7 km/h (4 Bft) 97,87 %
04.10.2021 14:56 18,4 C 18,3 C 15,0 C 59 % 1016,4 hPa 0,0 l/m 2 min 0 min 578 W/m 38,6 km/h (5 Bft) 97,87 %
04.10.2021 14:58 18,4 C 18,3 C 15,0 C 59 % 1016,3 hPa 0,0 l/m 2 min 0 min 567 W/m 19,3 km/h (3 Bft) 97,87 %
04.10.2021 15:00 18,5 C 18,9 C 15,0 C 59 % 1016,3 hPa 0,0 l/m 2 min 0 min 563 W/m 32,2 km/h (5 Bft) 97,83 %
04.10.2021 15:02 18,4 C 18,3 C 15,0 C 59 % 1016,3 hPa 0,0 l/m 2 min 0 min 562 W/m 29,0 km/h (5 Bft) 97,87 %
04.10.2021 15:04 18,4 C 18,3 C 15,0 C 59 % 1016,3 hPa 0,0 l/m 2 min 0 min 562 W/m 25,7 km/h (4 Bft) 97,87 %
04.10.2021 15:06 18,5 C 18,3 C 15,0 C 60 % 1016,4 hPa 0,0 l/m 2 min 0 min 561 W/m 25,7 km/h (4 Bft) 98,00 %
04.10.2021 15:08 18,5 C 18,3 C 15,0 C 59 % 1016,3 hPa 0,0 l/m 2 min 0 min 555 W/m 29,0 km/h (5 Bft) 93,62 %
04.10.2021 15:10 18,4 C 18,3 C 15,0 C 60 % 1016,4 hPa 0,0 l/m 2 min 0 min 552 W/m 29,0 km/h (5 Bft) 97,83 %
04.10.2021 15:12 18,3 C 17,8 C 15,0 C 59 % 1016,4 hPa 0,0 l/m 0 min 0 min 177 W/m 35,4 km/h (5 Bft) 97,87 %
04.10.2021 15:14 18,1 C 17,8 C 15,0 C 59 % 1016,3 hPa 0,0 l/m 2 min 0 min 571 W/m 22,5 km/h (4 Bft) 97,87 %
04.10.2021 15:16 18,3 C 17,8 C 15,0 C 60 % 1016,3 hPa 0,0 l/m 2 min 0 min 586 W/m 38,6 km/h (5 Bft) 100,00 %
04.10.2021 15:18 18,2 C 17,8 C 15,0 C 59 % 1016,3 hPa 0,0 l/m 2 min 0 min 587 W/m 25,7 km/h (4 Bft) 97,87 %
04.10.2021 15:20 18,3 C 17,8 C 15,0 C 60 % 1016,3 hPa 0,0 l/m 2 min 0 min 587 W/m 12,9 km/h (3 Bft) 97,87 %
04.10.2021 15:22 18,3 C 18,3 C 15,0 C 60 % 1016,3 hPa 0,0 l/m 2 min 0 min 560 W/m 19,3 km/h (3 Bft) 100,00 %
04.10.2021 15:24 18,4 C 18,3 C 15,0 C 60 % 1016,3 hPa 0,0 l/m 2 min 0 min 544 W/m 19,3 km/h (3 Bft) 97,87 %
04.10.2021 15:26 18,5 C 18,3 C 15,0 C 59 % 1016,3 hPa 0,0 l/m 2 min 0 min 531 W/m 29,0 km/h (5 Bft) 97,87 %
04.10.2021 15:28 18,5 C 18,3 C 15,6 C 58 % 1016,2 hPa 0,0 l/m 2 min 0 min 524 W/m 32,2 km/h (5 Bft) 97,87 %
04.10.2021 15:30 18,4 C 18,3 C 15,0 C 58 % 1016,2 hPa 0,0 l/m 2 min 0 min 520 W/m 32,2 km/h (5 Bft) 97,87 %
04.10.2021 15:32 18,5 C 18,3 C 15,6 C 59 % 1016,1 hPa 0,0 l/m 2 min 0 min 524 W/m 25,7 km/h (4 Bft) 97,87 %
04.10.2021 15:34 18,6 C 18,3 C 15,6 C 59 % 1016,2 hPa 0,0 l/m 2 min 0 min 529 W/m 22,5 km/h (4 Bft) 97,83 %
04.10.2021 15:36 18,6 C 18,3 C 15,6 C 58 % 1016,2 hPa 0,0 l/m 2 min 0 min 454 W/m 19,3 km/h (3 Bft) 95,74 %
04.10.2021 15:38 18,5 C 18,3 C 15,6 C 58 % 1016,2 hPa 0,0 l/m 2 min 0 min 320 W/m 16,1 km/h (3 Bft) 93,62 %
04.10.2021 15:40 18,4 C 18,3 C 15,6 C 58 % 1016,3 hPa 0,0 l/m 2 min 0 min 531 W/m 29,0 km/h (5 Bft) 93,62 %
04.10.2021 15:42 18,4 C 18,3 C 15,6 C 58 % 1016,3 hPa 0,0 l/m 2 min 0 min 531 W/m 22,5 km/h (4 Bft) 95,74 %
04.10.2021 15:44 18,3 C 17,8 C 15,0 C 57 % 1016,3 hPa 0,0 l/m 2 min 0 min 235 W/m 25,7 km/h (4 Bft) 93,62 %
04.10.2021 15:46 18,1 C 17,8 C 15,0 C 57 % 1016,3 hPa 0,0 l/m 0 min 0 min 144 W/m 29,0 km/h (5 Bft) 95,65 %
04.10.2021 15:48 18,0 C 17,8 C 15,0 C 58 % 1016,3 hPa 0,0 l/m 2 min 0 min 408 W/m 22,5 km/h (4 Bft) 95,74 %
04.10.2021 15:50 18,0 C 17,8 C 15,0 C 58 % 1016,4 hPa 0,0 l/m 2 min 0 min 374 W/m 22,5 km/h (4 Bft) 95,74 %
04.10.2021 15:52 18,1 C 17,8 C 15,0 C 59 % 1016,3 hPa 0,0 l/m 2 min 0 min 352 W/m 19,3 km/h (3 Bft) 93,62 %
04.10.2021 15:54 18,2 C 18,3 C 15,0 C 60 % 1016,3 hPa 0,0 l/m 2 min 0 min 539 W/m 16,1 km/h (3 Bft) 95,74 %
04.10.2021 15:56 18,5 C 18,3 C 15,0 C 59 % 1016,3 hPa 0,0 l/m 2 min 0 min 515 W/m 29,0 km/h (5 Bft) 95,65 %
04.10.2021 15:58 18,4 C 18,3 C 15,0 C 59 % 1016,3 hPa 0,0 l/m 2 min 0 min 492 W/m 16,1 km/h (3 Bft) 95,74 %
04.10.2021 16:00 18,4 C 18,3 C 15,0 C 59 % 1016,3 hPa 0,0 l/m 2 min 0 min 465 W/m 32,2 km/h (5 Bft) 95,74 %
04.10.2021 16:02 18,3 C 17,8 C 15,0 C 59 % 1016,3 hPa 0,0 l/m 0 min 0 min 192 W/m 16,1 km/h (3 Bft) 95,74 %
04.10.2021 16:04 18,3 C 17,8 C 15,0 C 60 % 1016,2 hPa 0,0 l/m 0 min 0 min 131 W/m 16,1 km/h (3 Bft) 95,74 %
04.10.2021 16:06 18,3 C 18,3 C 15,0 C 60 % 1016,3 hPa 0,0 l/m 2 min 0 min 241 W/m 9,7 km/h (2 Bft) 95,74 %
04.10.2021 16:08 18,4 C 18,3 C 15,6 C 61 % 1016,2 hPa 0,0 l/m 2 min 0 min 505 W/m 12,9 km/h (3 Bft) 95,74 %
04.10.2021 16:10 18,4 C 18,3 C 15,0 C 60 % 1016,3 hPa 0,0 l/m 2 min 0 min 499 W/m 16,1 km/h (3 Bft) 95,65 %
04.10.2021 16:12 18,4 C 18,3 C 15,0 C 60 % 1016,3 hPa 0,0 l/m 2 min 0 min 492 W/m 16,1 km/h (3 Bft) 97,92 %
04.10.2021 16:14 18,5 C 18,9 C 15,6 C 59 % 1016,3 hPa 0,0 l/m 2 min 0 min 474 W/m 19,3 km/h (3 Bft) 100,00 %
04.10.2021 16:16 18,5 C 18,9 C 15,6 C 58 % 1016,3 hPa 0,0 l/m 2 min 0 min 466 W/m 19,3 km/h (3 Bft) 100,00 %
04.10.2021 16:18 18,6 C 19,4 C 15,6 C 59 % 1016,3 hPa 0,0 l/m 2 min 0 min 462 W/m 16,1 km/h (3 Bft) 100,00 %
04.10.2021 16:20 18,6 C 18,9 C 15,6 C 59 % 1016,3 hPa 0,0 l/m 2 min 0 min 294 W/m 35,4 km/h (5 Bft) 97,83 %
04.10.2021 16:22 18,4 C 18,3 C 15,0 C 58 % 1016,4 hPa 0,0 l/m 0 min 0 min 88 W/m 22,5 km/h (4 Bft) 100,00 %
04.10.2021 16:24 18,2 C 17,8 C 15,0 C 59 % 1016,4 hPa 0,0 l/m 0 min 0 min 103 W/m 22,5 km/h (4 Bft) 100,00 %
04.10.2021 16:26 18,0 C 18,3 C 15,0 C 59 % 1016,4 hPa 0,0 l/m 0 min 0 min 116 W/m 16,1 km/h (3 Bft) 100,00 %
04.10.2021 16:28 17,9 C 18,3 C 15,0 C 59 % 1016,4 hPa 0,0 l/m 2 min 0 min 203 W/m 32,2 km/h (5 Bft) 100,00 %
04.10.2021 16:30 18,0 C 20,0 C 15,0 C 60 % 1016,4 hPa 0,0 l/m 2 min 0 min 387 W/m 19,3 km/h (3 Bft) 100,00 %
04.10.2021 16:32 18,1 C 21,1 C 15,0 C 59 % 1016,3 hPa 0,0 l/m 2 min 0 min 442 W/m 12,9 km/h (3 Bft) 100,00 %
04.10.2021 16:34 18,3 C 21,7 C 15,0 C 59 % 1016,3 hPa 0,0 l/m 2 min 0 min 442 W/m 16,1 km/h (3 Bft) 100,00 %
04.10.2021 16:36 18,4 C 21,1 C 15,0 C 59 % 1016,2 hPa 0,0 l/m 2 min 0 min 406 W/m 19,3 km/h (3 Bft) 100,00 %
04.10.2021 16:38 18,5 C 22,8 C 15,0 C 59 % 1016,3 hPa 0,0 l/m 2 min 0 min 416 W/m 22,5 km/h (4 Bft) 100,00 %
04.10.2021 16:40 18,6 C 23,3 C 15,0 C 59 % 1016,2 hPa 0,0 l/m 2 min 0 min 411 W/m 16,1 km/h (3 Bft) 100,00 %
04.10.2021 16:42 18,6 C 23,3 C 15,0 C 59 % 1016,2 hPa 0,0 l/m 2 min 0 min 420 W/m 6,4 km/h (2 Bft) 100,00 %
04.10.2021 16:44 18,6 C 21,7 C 15,0 C 58 % 1016,3 hPa 0,0 l/m 0 min 0 min 163 W/m 22,5 km/h (4 Bft) 100,00 %
04.10.2021 16:46 18,5 C 21,7 C 15,0 C 59 % 1016,3 hPa 0,0 l/m 2 min 0 min 292 W/m 12,9 km/h (3 Bft) 100,00 %
04.10.2021 16:48 18,6 C 21,1 C 15,0 C 59 % 1016,3 hPa 0,0 l/m 2 min 0 min 378 W/m 12,9 km/h (3 Bft) 100,00 %
04.10.2021 16:50 18,5 C 20,6 C 15,0 C 58 % 1016,3 hPa 0,0 l/m 2 min 0 min 226 W/m 22,5 km/h (4 Bft) 100,00 %
04.10.2021 16:52 18,4 C 19,4 C 15,0 C 59 % 1016,2 hPa 0,0 l/m 0 min 0 min 123 W/m 9,7 km/h (2 Bft) 100,00 %
04.10.2021 16:54 18,3 C 18,9 C 15,0 C 59 % 1016,2 hPa 0,0 l/m 0 min 0 min 92 W/m 22,5 km/h (4 Bft) 100,00 %
04.10.2021 16:56 18,1 C 19,4 C 15,0 C 60 % 1016,2 hPa 0,0 l/m 0 min 0 min 124 W/m 16,1 km/h (3 Bft) 100,00 %
04.10.2021 16:58 18,1 C 20,0 C 15,0 C 60 % 1016,2 hPa 0,0 l/m 2 min 0 min 268 W/m 19,3 km/h (3 Bft) 100,00 %
04.10.2021 17:00 18,0 C 19,4 C 14,5 C 61 % 1016,2 hPa 0,0 l/m 0 min 0 min 120 W/m 16,1 km/h (3 Bft) 97,87 %
04.10.2021 17:02 18,0 C 18,9 C 14,5 C 62 % 1016,2 hPa 0,0 l/m 2 min 0 min 190 W/m 12,9 km/h (3 Bft) 100,00 %
04.10.2021 17:04 18,0 C 18,3 C 14,5 C 61 % 1016,2 hPa 0,0 l/m 2 min 0 min 259 W/m 9,7 km/h (2 Bft) 100,00 %
04.10.2021 17:06 18,0 C 17,8 C 14,5 C 61 % 1016,2 hPa 0,0 l/m 0 min 0 min 98 W/m 16,1 km/h (3 Bft) 95,74 %
04.10.2021 17:08 17,9 C 17,8 C 14,5 C 61 % 1016,2 hPa 0,0 l/m 0 min 0 min 62 W/m 6,4 km/h (2 Bft) 97,87 %
04.10.2021 17:10 17,8 C 17,2 C 14,5 C 61 % 1016,2 hPa 0,0 l/m 0 min 0 min 65 W/m 16,1 km/h (3 Bft) 100,00 %
04.10.2021 17:12 17,8 C 17,2 C 14,5 C 61 % 1016,2 hPa 0,0 l/m 0 min 0 min 51 W/m 29,0 km/h (5 Bft) 100,00 %
04.10.2021 17:14 17,7 C 17,2 C 14,5 C 61 % 1016,2 hPa 0,0 l/m 0 min 0 min 44 W/m 22,5 km/h (4 Bft) 97,87 %
04.10.2021 17:16 17,6 C 16,7 C 13,9 C 61 % 1016,1 hPa 0,0 l/m 0 min 0 min 49 W/m 12,9 km/h (3 Bft) 100,00 %
04.10.2021 17:18 17,5 C 16,7 C 13,9 C 62 % 1016,1 hPa 0,0 l/m 0 min 0 min 60 W/m 9,7 km/h (2 Bft) 100,00 %
04.10.2021 17:20 17,4 C 16,7 C 13,9 C 63 % 1016,1 hPa 0,0 l/m 0 min 0 min 63 W/m 12,9 km/h (3 Bft) 100,00 %
04.10.2021 17:22 17,4 C 16,7 C 13,9 C 62 % 1016,1 hPa 0,0 l/m 0 min 0 min 43 W/m 16,1 km/h (3 Bft) 100,00 %
04.10.2021 17:24 17,3 C 16,7 C 13,9 C 62 % 1016,2 hPa 0,0 l/m 0 min 0 min 41 W/m 9,7 km/h (2 Bft) 100,00 %
04.10.2021 17:26 17,3 C 16,7 C 13,9 C 63 % 1016,1 hPa 0,0 l/m 0 min 0 min 40 W/m 12,9 km/h (3 Bft) 97,87 %
04.10.2021 17:28 17,3 C 16,7 C 13,9 C 62 % 1016,1 hPa 0,0 l/m 0 min 0 min 40 W/m 9,7 km/h (2 Bft) 100,00 %
04.10.2021 17:30 17,2 C 16,7 C 13,9 C 63 % 1016,2 hPa 0,0 l/m 0 min 0 min 63 W/m 16,1 km/h (3 Bft) 100,00 %
04.10.2021 17:32 17,2 C 16,7 C 13,4 C 63 % 1016,1 hPa 0,0 l/m 2 min 0 min 193 W/m 3,2 km/h (1 Bft) 100,00 %
04.10.2021 17:34 17,2 C 16,7 C 13,4 C 63 % 1016,1 hPa 0,0 l/m 2 min 0 min 186 W/m 9,7 km/h (2 Bft) 97,83 %
04.10.2021 17:36 17,2 C 16,7 C 13,9 C 63 % 1016,1 hPa 0,0 l/m 2 min 0 min 178 W/m 12,9 km/h (3 Bft) 97,87 %
04.10.2021 17:38 17,2 C 16,7 C 13,9 C 63 % 1016,1 hPa 0,0 l/m 2 min 0 min 171 W/m 9,7 km/h (2 Bft) 100,00 %
04.10.2021 17:40 17,2 C 16,7 C 13,9 C 63 % 1016,1 hPa 0,0 l/m 2 min 0 min 164 W/m 16,1 km/h (3 Bft) 97,87 %
04.10.2021 17:42 17,2 C 16,7 C 13,9 C 63 % 1016,1 hPa 0,0 l/m 2 min 0 min 159 W/m 16,1 km/h (3 Bft) 97,87 %
04.10.2021 17:44 17,2 C 16,7 C 13,9 C 62 % 1016,1 hPa 0,0 l/m 2 min 0 min 151 W/m 9,7 km/h (2 Bft) 97,87 %
04.10.2021 17:46 17,2 C 16,7 C 13,9 C 62 % 1016,0 hPa 0,0 l/m 2 min 0 min 143 W/m 16,1 km/h (3 Bft) 95,65 %
04.10.2021 17:48 17,2 C 16,7 C 13,9 C 62 % 1016,1 hPa 0,0 l/m 2 min 0 min 100 W/m 16,1 km/h (3 Bft) 97,87 %
04.10.2021 17:50 17,2 C 16,7 C 13,9 C 62 % 1016,1 hPa 0,0 l/m 0 min 0 min 43 W/m 9,7 km/h (2 Bft) 95,74 %
04.10.2021 17:52 17,2 C 16,7 C 13,9 C 62 % 1016,1 hPa 0,0 l/m 0 min 0 min 38 W/m 16,1 km/h (3 Bft) 97,87 %
04.10.2021 17:54 17,2 C 16,7 C 13,9 C 62 % 1016,0 hPa 0,0 l/m 0 min 0 min 37 W/m 12,9 km/h (3 Bft) 97,87 %
04.10.2021 17:56 17,2 C 16,7 C 13,9 C 62 % 1016,0 hPa 0,0 l/m 0 min 0 min 36 W/m 12,9 km/h (3 Bft) 91,49 %
04.10.2021 17:58 17,2 C 16,7 C 13,4 C 62 % 1016,0 hPa 0,0 l/m 0 min 0 min 35 W/m 9,7 km/h (2 Bft) 93,48 %
04.10.2021 18:00 17,1 C 16,7 C 13,4 C 62 % 1016,0 hPa 0,0 l/m 0 min 0 min 35 W/m 9,7 km/h (2 Bft) 91,49 %
04.10.2021 18:02 17,1 C 16,1 C 13,4 C 62 % 1016,0 hPa 0,0 l/m 0 min 0 min 33 W/m 9,7 km/h (2 Bft) 93,62 %
04.10.2021 18:04 17,1 C 16,1 C 13,4 C 63 % 1016,0 hPa 0,0 l/m 0 min 0 min 33 W/m 16,1 km/h (3 Bft) 89,36 %
04.10.2021 18:08 17,0 C 16,1 C 13,4 C 63 % 1016,0 hPa 0,0 l/m 0 min 0 min 32 W/m 12,9 km/h (3 Bft) 93,00 %
04.10.2021 18:10 17,0 C 16,1 C 13,4 C 63 % 1015,9 hPa 0,0 l/m 0 min 0 min 30 W/m 12,9 km/h (3 Bft) 93,62 %
04.10.2021 18:12 17,0 C 16,1 C 13,4 C 63 % 1016,0 hPa 0,0 l/m 0 min 0 min 30 W/m 9,7 km/h (2 Bft) 91,49 %
04.10.2021 18:14 17,0 C 16,1 C 13,4 C 64 % 1016,0 hPa 0,0 l/m 0 min 0 min 28 W/m 9,7 km/h (2 Bft) 93,62 %
04.10.2021 18:16 17,0 C 16,1 C 13,4 C 63 % 1016,0 hPa 0,0 l/m 0 min 0 min 29 W/m 12,9 km/h (3 Bft) 93,62 %
04.10.2021 18:18 16,9 C 16,1 C 13,4 C 64 % 1016,0 hPa 0,0 l/m 0 min 0 min 32 W/m 19,3 km/h (3 Bft) 93,62 %
04.10.2021 18:20 16,9 C 16,1 C 13,4 C 64 % 1016,1 hPa 0,0 l/m 0 min 0 min 28 W/m 12,9 km/h (3 Bft) 93,75 %
04.10.2021 18:22 16,9 C 15,6 C 13,4 C 63 % 1016,1 hPa 0,0 l/m 0 min 0 min 26 W/m 12,9 km/h (3 Bft) 95,74 %
04.10.2021 18:24 16,8 C 15,6 C 13,4 C 63 % 1016,0 hPa 0,0 l/m 0 min 0 min 24 W/m 12,9 km/h (3 Bft) 95,74 %
04.10.2021 18:26 16,8 C 15,6 C 13,4 C 63 % 1016,0 hPa 0,0 l/m 0 min 0 min 23 W/m 16,1 km/h (3 Bft) 95,74 %
04.10.2021 18:28 16,7 C 15,6 C 13,4 C 63 % 1015,9 hPa 0,0 l/m 0 min 0 min 21 W/m 12,9 km/h (3 Bft) 95,74 %
04.10.2021 18:30 16,6 C 15,6 C 12,8 C 63 % 1015,9 hPa 0,0 l/m 0 min 0 min 21 W/m 9,7 km/h (2 Bft) 95,65 %
04.10.2021 18:32 16,6 C 15,6 C 12,8 C 63 % 1015,9 hPa 0,0 l/m 0 min 0 min 20 W/m 12,9 km/h (3 Bft) 95,74 %
04.10.2021 18:34 16,6 C 15,6 C 12,8 C 64 % 1015,9 hPa 0,0 l/m 0 min 0 min 19 W/m 6,4 km/h (2 Bft) 97,87 %
04.10.2021 18:36 16,5 C 15,6 C 12,8 C 64 % 1015,9 hPa 0,0 l/m 0 min 0 min 19 W/m 6,4 km/h (2 Bft) 97,87 %
04.10.2021 18:38 16,5 C 15,6 C 12,8 C 64 % 1015,9 hPa 0,0 l/m 0 min 0 min 18 W/m 6,4 km/h (2 Bft) 97,87 %
04.10.2021 18:40 16,4 C 15,0 C 12,8 C 64 % 1015,9 hPa 0,0 l/m 0 min 0 min 17 W/m 6,4 km/h (2 Bft) 95,74 %
04.10.2021 18:42 16,4 C 15,0 C 12,8 C 64 % 1015,9 hPa 0,0 l/m 0 min 0 min 16 W/m 22,5 km/h (4 Bft) 100,00 %
04.10.2021 18:44 16,3 C 15,0 C 12,8 C 65 % 1016,0 hPa 0,0 l/m 0 min 0 min 15 W/m 22,5 km/h (4 Bft) 100,00 %
04.10.2021 18:46 16,3 C 15,0 C 12,8 C 65 % 1016,0 hPa 0,0 l/m 0 min 0 min 14 W/m 12,9 km/h (3 Bft) 100,00 %
04.10.2021 18:48 16,2 C 15,0 C 12,8 C 65 % 1015,9 hPa 0,0 l/m 0 min 0 min 13 W/m 6,4 km/h (2 Bft) 100,00 %
04.10.2021 18:50 16,1 C 15,0 C 12,8 C 65 % 1016,0 hPa 0,0 l/m 0 min 0 min 12 W/m 6,4 km/h (2 Bft) 100,00 %
04.10.2021 18:52 16,1 C 15,0 C 12,8 C 65 % 1016,0 hPa 0,0 l/m 0 min 0 min 12 W/m 6,4 km/h (2 Bft) 97,87 %
04.10.2021 18:54 16,1 C 15,0 C 12,3 C 65 % 1015,9 hPa 0,0 l/m 0 min 0 min 11 W/m 12,9 km/h (3 Bft) 97,83 %
04.10.2021 18:56 16,0 C 15,0 C 12,3 C 65 % 1015,9 hPa 0,0 l/m 0 min 0 min 9 W/m 12,9 km/h (3 Bft) 100,00 %
04.10.2021 18:58 16,0 C 15,0 C 12,3 C 66 % 1015,9 hPa 0,0 l/m 0 min 0 min 8 W/m 9,7 km/h (2 Bft) 100,00 %
04.10.2021 19:00 15,9 C 14,4 C 12,3 C 66 % 1015,9 hPa 0,0 l/m 0 min 0 min 7 W/m 6,4 km/h (2 Bft) 100,00 %
04.10.2021 19:02 15,9 C 14,4 C 12,3 C 66 % 1015,9 hPa 0,0 l/m 0 min 0 min 6 W/m 6,4 km/h (2 Bft) 97,56 %
04.10.2021 19:04 15,8 C 14,4 C 12,3 C 66 % 1016,0 hPa 0,0 l/m 0 min 0 min 5 W/m 3,2 km/h (1 Bft) 100,00 %
04.10.2021 19:06 15,8 C 14,4 C 12,3 C 66 % 1016,0 hPa 0,0 l/m 0 min 0 min 5 W/m 3,2 km/h (1 Bft) 100,00 %
04.10.2021 19:08 15,8 C 14,4 C 12,3 C 67 % 1016,0 hPa 0,0 l/m 0 min 0 min 1 W/m 9,7 km/h (2 Bft) 100,00 %
04.10.2021 19:10 15,7 C 14,4 C 12,3 C 67 % 1016,1 hPa 0,0 l/m 0 min 0 min 0 W/m 3,2 km/h (1 Bft) 100,00 %
04.10.2021 19:12 15,6 C 14,4 C 12,3 C 67 % 1016,0 hPa 0,0 l/m 0 min 0 min 0 W/m 9,7 km/h (2 Bft) 100,00 %
04.10.2021 19:14 15,6 C 14,4 C 11,7 C 67 % 1016,0 hPa 0,0 l/m 0 min 0 min 0 W/m 6,4 km/h (2 Bft) 100,00 %
04.10.2021 19:16 15,5 C 14,4 C 11,7 C 67 % 1015,9 hPa 0,0 l/m 0 min 0 min 0 W/m 3,2 km/h (1 Bft) 100,00 %
04.10.2021 19:18 15,5 C 13,9 C 11,7 C 67 % 1015,9 hPa 0,0 l/m 0 min 0 min 0 W/m 6,4 km/h (2 Bft) 100,00 %
04.10.2021 19:20 15,4 C 13,9 C 11,7 C 68 % 1016,0 hPa 0,0 l/m 0 min 0 min 0 W/m 9,7 km/h (2 Bft) 100,00 %
04.10.2021 19:22 15,4 C 13,9 C 11,7 C 68 % 1016,0 hPa 0,0 l/m 0 min 0 min 0 W/m 3,2 km/h (1 Bft) 100,00 %
04.10.2021 19:24 15,3 C 13,9 C 11,7 C 68 % 1015,9 hPa 0,0 l/m 0 min 0 min 0 W/m 3,2 km/h (1 Bft) 100,00 %
04.10.2021 19:26 15,3 C 13,9 C 11,7 C 68 % 1016,0 hPa 0,0 l/m 0 min 0 min 0 W/m 3,2 km/h (1 Bft) 100,00 %
04.10.2021 19:28 15,3 C 13,9 C 11,1 C 68 % 1016,0 hPa 0,0 l/m 0 min 0 min 0 W/m 3,2 km/h (1 Bft) 100,00 %
04.10.2021 19:30 15,2 C 13,9 C 11,1 C 68 % 1016,0 hPa 0,0 l/m 0 min 0 min 0 W/m 6,4 km/h (2 Bft) 100,00 %
04.10.2021 19:32 15,1 C 13,9 C 11,1 C 69 % 1015,9 hPa 0,0 l/m 0 min 0 min 0 W/m 3,2 km/h (1 Bft) 100,00 %
04.10.2021 19:34 15,1 C 13,9 C 11,1 C 69 % 1015,9 hPa 0,0 l/m 0 min 0 min 0 W/m 3,2 km/h (1 Bft) 97,87 %
04.10.2021 19:36 15,0 C 13,3 C 11,1 C 69 % 1016,0 hPa 0,0 l/m 0 min 0 min 0 W/m 3,2 km/h (1 Bft) 100,00 %
04.10.2021 19:38 15,0 C 13,3 C 11,1 C 69 % 1015,9 hPa 0,0 l/m 0 min 0 min 0 W/m 3,2 km/h (1 Bft) 100,00 %
04.10.2021 19:40 15,0 C 13,3 C 11,1 C 69 % 1015,9 hPa 0,0 l/m 0 min 0 min 0 W/m 3,2 km/h (1 Bft) 95,92 %
04.10.2021 19:42 14,9 C 13,3 C 10,6 C 70 % 1015,9 hPa 0,0 l/m 0 min 0 min 0 W/m 0,0 km/h (0 Bft) 97,22 %
04.10.2021 19:44 14,9 C 13,3 C 10,6 C 70 % 1015,9 hPa 0,0 l/m 0 min 0 min 0 W/m 3,2 km/h (1 Bft) 97,83 %
04.10.2021 19:46 14,9 C 13,3 C 10,6 C 70 % 1015,8 hPa 0,0 l/m 0 min 0 min 0 W/m 0,0 km/h (0 Bft) 96,43 %
04.10.2021 19:48 14,8 C 12,8 C 10,6 C 70 % 1015,8 hPa 0,0 l/m 0 min 0 min 0 W/m 3,2 km/h (1 Bft) 97,87 %
04.10.2021 19:50 14,7 C 12,8 C 10,6 C 71 % 1015,8 hPa 0,0 l/m 0 min 0 min 0 W/m 0,0 km/h (0 Bft) 97,87 %
04.10.2021 19:52 14,6 C 12,8 C 10,6 C 71 % 1015,8 hPa 0,0 l/m 0 min 0 min 0 W/m 3,2 km/h (1 Bft) 95,92 %
04.10.2021 19:54 14,6 C 12,8 C 10,6 C 71 % 1015,8 hPa 0,0 l/m 0 min 0 min 0 W/m 3,2 km/h (1 Bft) 97,22 %
04.10.2021 19:56 14,5 C 12,8 C 10,6 C 71 % 1015,8 hPa 0,0 l/m 0 min 0 min 0 W/m 3,2 km/h (1 Bft) 97,83 %
04.10.2021 19:58 14,5 C 12,8 C 10,6 C 71 % 1015,8 hPa 0,0 l/m 0 min 0 min 0 W/m 3,2 km/h (1 Bft) 96,43 %
04.10.2021 20:00 14,4 C 12,8 C 10,6 C 71 % 1015,7 hPa 0,0 l/m 0 min 0 min 0 W/m 3,2 km/h (1 Bft) 95,74 %
04.10.2021 20:02 14,4 C 12,8 C 10,6 C 71 % 1015,8 hPa 0,0 l/m 0 min 0 min 0 W/m 3,2 km/h (1 Bft) 96,00 %
04.10.2021 20:04 14,4 C 12,8 C 10,6 C 71 % 1015,8 hPa 0,0 l/m 0 min 0 min 0 W/m 3,2 km/h (1 Bft) 95,35 %
04.10.2021 20:06 14,3 C 12,8 C 10,6 C 71 % 1015,8 hPa 0,0 l/m 0 min 0 min 0 W/m 3,2 km/h (1 Bft) 93,62 %
04.10.2021 20:08 14,2 C 12,8 C 10,6 C 71 % 1015,8 hPa 0,0 l/m 0 min 0 min 0 W/m 3,2 km/h (1 Bft) 95,74 %
04.10.2021 20:10 14,2 C 12,8 C 10,6 C 72 % 1015,8 hPa 0,0 l/m 0 min 0 min 0 W/m 3,2 km/h (1 Bft) 52,50 %
04.10.2021 20:12 14,2 C 12,8 C 10,6 C 72 % 1015,7 hPa 0,0 l/m 0 min 0 min 0 W/m 3,2 km/h (1 Bft) 95,74 %
04.10.2021 20:14 14,2 C 12,8 C 10,6 C 72 % 1015,7 hPa 0,0 l/m 0 min 0 min 0 W/m 3,2 km/h (1 Bft) 94,00 %
04.10.2021 20:16 14,1 C 12,8 C 10,6 C 72 % 1015,7 hPa 0,0 l/m 0 min 0 min 0 W/m 3,2 km/h (1 Bft) 96,15 %
04.10.2021 20:18 14,1 C 12,8 C 10,6 C 72 % 1015,7 hPa 0,0 l/m 0 min 0 min 0 W/m 3,2 km/h (1 Bft) 97,87 %
04.10.2021 20:20 14,0 C 12,8 C 10,6 C 72 % 1015,7 hPa 0,0 l/m 0 min 0 min 0 W/m 3,2 km/h (1 Bft) 97,87 %
04.10.2021 20:22 14,0 C 12,8 C 10,6 C 72 % 1015,7 hPa 0,0 l/m 0 min 0 min 0 W/m 6,4 km/h (2 Bft) 97,87 %
04.10.2021 20:24 13,9 C 12,8 C 10,6 C 73 % 1015,7 hPa 0,0 l/m 0 min 0 min 0 W/m 3,2 km/h (1 Bft) 97,37 %
04.10.2021 20:26 13,9 C 12,2 C 10,6 C 73 % 1015,6 hPa 0,0 l/m 0 min 0 min 0 W/m 3,2 km/h (1 Bft) 97,87 %
04.10.2021 20:28 13,9 C 12,2 C 10,6 C 73 % 1015,7 hPa 0,0 l/m 0 min 0 min 0 W/m 3,2 km/h (1 Bft) 97,96 %
04.10.2021 20:30 13,8 C 12,2 C 10,6 C 73 % 1015,7 hPa 0,0 l/m 0 min 0 min 0 W/m 3,2 km/h (1 Bft) 95,74 %
04.10.2021 20:32 13,8 C 12,2 C 10,6 C 73 % 1015,7 hPa 0,0 l/m 0 min 0 min 0 W/m 6,4 km/h (2 Bft) 100,00 %
04.10.2021 20:34 13,7 C 12,2 C 10,6 C 73 % 1015,7 hPa 0,0 l/m 0 min 0 min 0 W/m 3,2 km/h (1 Bft) 100,00 %
04.10.2021 20:36 13,6 C 12,2 C 10,6 C 73 % 1015,7 hPa 0,0 l/m 0 min 0 min 0 W/m 3,2 km/h (1 Bft) 100,00 %
04.10.2021 20:38 13,6 C 12,2 C 10,6 C 73 % 1015,7 hPa 0,0 l/m 0 min 0 min 0 W/m 3,2 km/h (1 Bft) 100,00 %
04.10.2021 20:40 13,6 C 12,2 C 10,6 C 73 % 1015,7 hPa 0,0 l/m 0 min 0 min 0 W/m 6,4 km/h (2 Bft) 100,00 %
04.10.2021 20:42 13,6 C 12,2 C 10,6 C 74 % 1015,7 hPa 0,0 l/m 0 min 0 min 0 W/m 6,4 km/h (2 Bft) 97,87 %
04.10.2021 20:44 13,5 C 12,2 C 10,6 C 74 % 1015,7 hPa 0,0 l/m 0 min 0 min 0 W/m 6,4 km/h (2 Bft) 100,00 %
04.10.2021 20:46 13,5 C 12,2 C 10,6 C 74 % 1015,8 hPa 0,0 l/m 0 min 0 min 0 W/m 3,2 km/h (1 Bft) 100,00 %
04.10.2021 20:48 13,4 C 12,2 C 10,6 C 74 % 1015,7 hPa 0,0 l/m 0 min 0 min 0 W/m 3,2 km/h (1 Bft) 100,00 %
04.10.2021 20:50 13,4 C 12,2 C 10,6 C 74 % 1015,7 hPa 0,0 l/m 0 min 0 min 0 W/m 6,4 km/h (2 Bft) 100,00 %
04.10.2021 20:52 13,4 C 12,2 C 10,0 C 74 % 1015,7 hPa 0,0 l/m 0 min 0 min 0 W/m 3,2 km/h (1 Bft) 100,00 %
04.10.2021 20:54 13,3 C 12,2 C 10,0 C 75 % 1015,7 hPa 0,0 l/m 0 min 0 min 0 W/m 6,4 km/h (2 Bft) 100,00 %
04.10.2021 20:56 13,3 C 12,2 C 10,0 C 75 % 1015,7 hPa 0,0 l/m 0 min 0 min 0 W/m 3,2 km/h (1 Bft) 97,87 %
04.10.2021 20:58 13,3 C 12,2 C 10,0 C 75 % 1015,7 hPa 0,0 l/m 0 min 0 min 0 W/m 3,2 km/h (1 Bft) 97,37 %
04.10.2021 21:00 13,2 C 12,2 C 10,0 C 75 % 1015,6 hPa 0,0 l/m 0 min 0 min 0 W/m 3,2 km/h (1 Bft) 97,87 %
04.10.2021 21:02 13,1 C 12,2 C 10,0 C 75 % 1015,6 hPa 0,0 l/m 0 min 0 min 0 W/m 3,2 km/h (1 Bft) 98,00 %
04.10.2021 21:04 13,1 C 12,2 C 10,0 C 75 % 1015,6 hPa 0,0 l/m 0 min 0 min 0 W/m 3,2 km/h (1 Bft) 97,83 %
04.10.2021 21:06 13,1 C 12,2 C 10,0 C 76 % 1015,6 hPa 0,0 l/m 0 min 0 min 0 W/m 3,2 km/h (1 Bft) 95,74 %
04.10.2021 21:08 13,1 C 12,2 C 10,0 C 76 % 1015,6 hPa 0,0 l/m 0 min 0 min 0 W/m 6,4 km/h (2 Bft) 95,74 %
04.10.2021 21:10 13,0 C 12,2 C 10,0 C 75 % 1015,6 hPa 0,0 l/m 0 min 0 min 0 W/m 3,2 km/h (1 Bft) 97,87 %
04.10.2021 21:12 13,0 C 12,2 C 10,0 C 76 % 1015,6 hPa 0,0 l/m 0 min 0 min 0 W/m 6,4 km/h (2 Bft) 98,18 %
04.10.2021 21:14 13,0 C 11,7 C 10,0 C 76 % 1015,6 hPa 0,0 l/m 0 min 0 min 0 W/m 3,2 km/h (1 Bft) 97,87 %
04.10.2021 21:16 13,0 C 11,7 C 10,0 C 76 % 1015,6 hPa 0,0 l/m 0 min 0 min 0 W/m 3,2 km/h (1 Bft) 95,74 %
04.10.2021 21:18 12,9 C 11,7 C 10,0 C 76 % 1015,6 hPa 0,0 l/m 0 min 0 min 0 W/m 3,2 km/h (1 Bft) 98,00 %
04.10.2021 21:20 12,9 C 11,7 C 10,0 C 76 % 1015,6 hPa 0,0 l/m 0 min 0 min 0 W/m 3,2 km/h (1 Bft) 97,78 %
04.10.2021 21:22 12,9 C 11,7 C 10,0 C 76 % 1015,6 hPa 0,0 l/m 0 min 0 min 0 W/m 3,2 km/h (1 Bft) 93,62 %
04.10.2021 21:24 12,9 C 11,7 C 10,0 C 76 % 1015,5 hPa 0,0 l/m 0 min 0 min 0 W/m 6,4 km/h (2 Bft) 97,37 %
04.10.2021 21:26 12,9 C 11,7 C 10,0 C 76 % 1015,6 hPa 0,0 l/m 0 min 0 min 0 W/m 6,4 km/h (2 Bft) 95,65 %
04.10.2021 21:28 12,8 C 11,7 C 10,0 C 76 % 1015,6 hPa 0,0 l/m 0 min 0 min 0 W/m 6,4 km/h (2 Bft) 95,74 %
04.10.2021 21:30 12,8 C 11,7 C 10,0 C 76 % 1015,5 hPa 0,0 l/m 0 min 0 min 0 W/m 3,2 km/h (1 Bft) 97,87 %
04.10.2021 21:32 12,8 C 11,7 C 10,0 C 77 % 1015,5 hPa 0,0 l/m 0 min 0 min 0 W/m 3,2 km/h (1 Bft) 97,92 %
04.10.2021 21:34 12,8 C 11,7 C 10,0 C 77 % 1015,5 hPa 0,0 l/m 0 min 0 min 0 W/m 3,2 km/h (1 Bft) 97,92 %
04.10.2021 21:36 12,8 C 11,7 C 10,0 C 77 % 1015,5 hPa 0,0 l/m 0 min 0 min 0 W/m 3,2 km/h (1 Bft) 93,62 %
04.10.2021 21:38 12,7 C 11,7 C 10,0 C 77 % 1015,6 hPa 0,0 l/m 0 min 0 min 0 W/m 6,4 km/h (2 Bft) 95,65 %
04.10.2021 21:40 12,7 C 11,7 C 10,0 C 77 % 1015,5 hPa 0,0 l/m 0 min 0 min 0 W/m 6,4 km/h (2 Bft) 95,74 %
04.10.2021 21:42 12,7 C 11,7 C 10,0 C 77 % 1015,5 hPa 0,0 l/m 0 min 0 min 0 W/m 3,2 km/h (1 Bft) 93,62 %
04.10.2021 21:44 12,7 C 11,7 C 10,0 C 77 % 1015,5 hPa 0,0 l/m 0 min 0 min 0 W/m 3,2 km/h (1 Bft) 94,55 %
04.10.2021 21:46 12,7 C 11,7 C 10,0 C 77 % 1015,5 hPa 0,0 l/m 0 min 0 min 0 W/m 6,4 km/h (2 Bft) 94,74 %
04.10.2021 21:48 12,6 C 11,7 C 10,0 C 77 % 1015,6 hPa 0,0 l/m 0 min 0 min 0 W/m 12,9 km/h (3 Bft) 95,74 %
04.10.2021 21:50 12,6 C 11,7 C 10,0 C 77 % 1015,6 hPa 0,0 l/m 0 min 0 min 0 W/m 6,4 km/h (2 Bft) 95,74 %
04.10.2021 21:52 12,6 C 11,7 C 10,0 C 77 % 1015,6 hPa 0,0 l/m 0 min 0 min 0 W/m 6,4 km/h (2 Bft) 91,49 %
04.10.2021 21:54 12,5 C 11,7 C 9,5 C 78 % 1015,6 hPa 0,0 l/m 0 min 0 min 0 W/m 6,4 km/h (2 Bft) 95,74 %
04.10.2021 21:56 12,5 C 11,7 C 9,5 C 78 % 1015,5 hPa 0,0 l/m 0 min 0 min 0 W/m 6,4 km/h (2 Bft) 97,87 %
04.10.2021 21:58 12,5 C 11,7 C 9,5 C 78 % 1015,5 hPa 0,0 l/m 0 min 0 min 0 W/m 6,4 km/h (2 Bft) 96,00 %
04.10.2021 22:00 12,5 C 11,7 C 9,5 C 78 % 1015,5 hPa 0,0 l/m 0 min 0 min 0 W/m 3,2 km/h (1 Bft) 95,65 %
04.10.2021 22:02 12,4 C 11,1 C 9,5 C 78 % 1015,5 hPa 0,0 l/m 0 min 0 min 0 W/m 3,2 km/h (1 Bft) 93,88 %
04.10.2021 22:04 12,4 C 11,1 C 9,5 C 78 % 1015,5 hPa 0,0 l/m 0 min 0 min 0 W/m 9,7 km/h (2 Bft) 97,87 %
04.10.2021 22:06 12,4 C 11,7 C 9,5 C 78 % 1015,5 hPa 0,0 l/m 0 min 0 min 0 W/m 3,2 km/h (1 Bft) 100,00 %
04.10.2021 22:08 12,4 C 11,7 C 9,5 C 78 % 1015,5 hPa 0,0 l/m 0 min 0 min 0 W/m 6,4 km/h (2 Bft) 98,00 %
04.10.2021 22:10 12,3 C 11,7 C 9,5 C 78 % 1015,5 hPa 0,0 l/m 0 min 0 min 0 W/m 6,4 km/h (2 Bft) 97,22 %
04.10.2021 22:12 12,3 C 11,7 C 10,0 C 78 % 1015,5 hPa 0,0 l/m 0 min 0 min 0 W/m 6,4 km/h (2 Bft) 97,87 %
04.10.2021 22:14 12,3 C 11,7 C 10,0 C 78 % 1015,5 hPa 0,0 l/m 0 min 0 min 0 W/m 6,4 km/h (2 Bft) 97,83 %
04.10.2021 22:16 12,3 C 11,7 C 10,0 C 78 % 1015,5 hPa 0,0 l/m 0 min 0 min 0 W/m 6,4 km/h (2 Bft) 97,87 %
04.10.2021 22:18 12,3 C 11,7 C 10,0 C 78 % 1015,6 hPa 0,0 l/m 0 min 0 min 0 W/m 9,7 km/h (2 Bft) 97,87 %
04.10.2021 22:20 12,4 C 11,7 C 10,0 C 78 % 1015,5 hPa 0,0 l/m 0 min 0 min 0 W/m 12,9 km/h (3 Bft) 98,18 %
04.10.2021 22:22 12,3 C 11,7 C 10,0 C 79 % 1015,5 hPa 0,0 l/m 0 min 0 min 0 W/m 6,4 km/h (2 Bft) 97,96 %
04.10.2021 22:24 12,4 C 11,7 C 10,0 C 79 % 1015,5 hPa 0,0 l/m 0 min 0 min 0 W/m 6,4 km/h (2 Bft) 93,62 %
04.10.2021 22:26 12,3 C 11,7 C 10,0 C 79 % 1015,5 hPa 0,0 l/m 0 min 0 min 0 W/m 6,4 km/h (2 Bft) 100,00 %
04.10.2021 22:28 12,3 C 11,7 C 10,0 C 79 % 1015,5 hPa 0,0 l/m 0 min 0 min 0 W/m 3,2 km/h (1 Bft) 97,87 %
04.10.2021 22:30 12,3 C 11,7 C 10,0 C 79 % 1015,6 hPa 0,0 l/m 0 min 0 min 0 W/m 6,4 km/h (2 Bft) 95,74 %
04.10.2021 22:32 12,3 C 11,7 C 9,5 C 79 % 1015,5 hPa 0,0 l/m 0 min 0 min 0 W/m 6,4 km/h (2 Bft) 97,87 %
04.10.2021 22:34 12,3 C 11,7 C 9,5 C 79 % 1015,5 hPa 0,0 l/m 0 min 0 min 0 W/m 3,2 km/h (1 Bft) 98,15 %
04.10.2021 22:36 12,3 C 11,1 C 9,5 C 79 % 1015,5 hPa 0,0 l/m 0 min 0 min 0 W/m 3,2 km/h (1 Bft) 97,87 %
04.10.2021 22:38 12,3 C 11,1 C 9,5 C 79 % 1015,4 hPa 0,0 l/m 0 min 0 min 0 W/m 3,2 km/h (1 Bft) 98,00 %
04.10.2021 22:40 12,3 C 11,1 C 9,5 C 79 % 1015,5 hPa 0,0 l/m 0 min 0 min 0 W/m 6,4 km/h (2 Bft) 97,87 %
04.10.2021 22:42 12,2 C 11,1 C 9,5 C 79 % 1015,5 hPa 0,0 l/m 0 min 0 min 0 W/m 3,2 km/h (1 Bft) 97,87 %
04.10.2021 22:44 12,2 C 11,1 C 9,5 C 79 % 1015,4 hPa 0,0 l/m 0 min 0 min 0 W/m 6,4 km/h (2 Bft) 97,22 %
04.10.2021 22:46 12,1 C 11,1 C 9,5 C 79 % 1015,4 hPa 0,0 l/m 0 min 0 min 0 W/m 3,2 km/h (1 Bft) 97,87 %
04.10.2021 22:48 12,1 C 11,1 C 9,5 C 80 % 1015,4 hPa 0,0 l/m 0 min 0 min 0 W/m 3,2 km/h (1 Bft) 100,00 %
04.10.2021 22:50 12,1 C 11,1 C 9,5 C 80 % 1015,4 hPa 0,0 l/m 0 min 0 min 0 W/m 3,2 km/h (1 Bft) 100,00 %
04.10.2021 22:52 12,0 C 11,1 C 9,5 C 80 % 1015,4 hPa 0,0 l/m 0 min 0 min 0 W/m 3,2 km/h (1 Bft) 97,87 %
04.10.2021 22:54 12,0 C 11,1 C 9,5 C 80 % 1015,3 hPa 0,0 l/m 0 min 0 min 0 W/m 6,4 km/h (2 Bft) 100,00 %
04.10.2021 22:56 12,0 C 10,6 C 9,5 C 80 % 1015,4 hPa 0,0 l/m 0 min 0 min 0 W/m 3,2 km/h (1 Bft) 100,00 %
04.10.2021 22:58 12,0 C 10,6 C 9,5 C 80 % 1015,3 hPa 0,0 l/m 0 min 0 min 0 W/m 3,2 km/h (1 Bft) 100,00 %
04.10.2021 23:00 11,9 C 10,6 C 9,5 C 80 % 1015,4 hPa 0,0 l/m 0 min 0 min 0 W/m 3,2 km/h (1 Bft) 100,00 %
04.10.2021 23:02 11,9 C 10,6 C 9,5 C 80 % 1015,4 hPa 0,0 l/m 0 min 0 min 0 W/m 3,2 km/h (1 Bft) 100,00 %
04.10.2021 23:04 11,9 C 10,6 C 9,5 C 81 % 1015,3 hPa 0,0 l/m 0 min 0 min 0 W/m 3,2 km/h (1 Bft) 100,00 %
04.10.2021 23:06 11,8 C 10,6 C 8,9 C 81 % 1015,3 hPa 0,0 l/m 0 min 0 min 0 W/m 6,4 km/h (2 Bft) 100,00 %
04.10.2021 23:08 11,8 C 10,6 C 8,9 C 81 % 1015,2 hPa 0,0 l/m 0 min 0 min 0 W/m 3,2 km/h (1 Bft) 95,74 %
04.10.2021 23:10 11,8 C 10,6 C 8,9 C 81 % 1015,2 hPa 0,0 l/m 0 min 0 min 0 W/m 6,4 km/h (2 Bft) 100,00 %
04.10.2021 23:12 11,8 C 10,6 C 8,9 C 81 % 1015,2 hPa 0,0 l/m 0 min 0 min 0 W/m 3,2 km/h (1 Bft) 100,00 %
04.10.2021 23:14 11,7 C 10,6 C 8,9 C 81 % 1015,2 hPa 0,0 l/m 0 min 0 min 0 W/m 3,2 km/h (1 Bft) 100,00 %
04.10.2021 23:16 11,7 C 10,6 C 8,9 C 81 % 1015,3 hPa 0,0 l/m 0 min 0 min 0 W/m 3,2 km/h (1 Bft) 100,00 %
04.10.2021 23:18 11,6 C 10,6 C 8,9 C 81 % 1015,2 hPa 0,0 l/m 0 min 0 min 0 W/m 3,2 km/h (1 Bft) 95,74 %
04.10.2021 23:20 11,6 C 10,6 C 8,9 C 82 % 1015,3 hPa 0,0 l/m 0 min 0 min 0 W/m 3,2 km/h (1 Bft) 97,87 %
04.10.2021 23:22 11,6 C 10,6 C 8,9 C 82 % 1015,3 hPa 0,0 l/m 0 min 0 min 0 W/m 3,2 km/h (1 Bft) 97,62 %
04.10.2021 23:24 11,5 C 10,6 C 8,9 C 82 % 1015,3 hPa 0,0 l/m 0 min 0 min 0 W/m 6,4 km/h (2 Bft) 97,83 %
04.10.2021 23:26 11,5 C 10,6 C 8,9 C 82 % 1015,3 hPa 0,0 l/m 0 min 0 min 0 W/m 3,2 km/h (1 Bft) 97,87 %
04.10.2021 23:28 11,5 C 10,6 C 8,9 C 83 % 1015,3 hPa 0,0 l/m 0 min 0 min 0 W/m 3,2 km/h (1 Bft) 97,87 %
04.10.2021 23:30 11,5 C 10,6 C 8,9 C 83 % 1015,2 hPa 0,0 l/m 0 min 0 min 0 W/m 6,4 km/h (2 Bft) 97,87 %
04.10.2021 23:32 11,5 C 10,6 C 8,9 C 83 % 1015,3 hPa 0,0 l/m 0 min 0 min 0 W/m 3,2 km/h (1 Bft) 97,87 %
04.10.2021 23:34 11,4 C 10,6 C 8,9 C 83 % 1015,3 hPa 0,0 l/m 0 min 0 min 0 W/m 6,4 km/h (2 Bft) 97,83 %
04.10.2021 23:36 11,4 C 10,6 C 8,9 C 83 % 1015,3 hPa 0,0 l/m 0 min 0 min 0 W/m 3,2 km/h (1 Bft) 97,87 %
04.10.2021 23:38 11,4 C 10,6 C 8,9 C 84 % 1015,3 hPa 0,0 l/m 0 min 0 min 0 W/m 12,9 km/h (3 Bft) 94,92 %
04.10.2021 23:40 11,4 C 10,6 C 8,9 C 84 % 1015,2 hPa 0,0 l/m 0 min 0 min 0 W/m 6,4 km/h (2 Bft) 94,29 %
04.10.2021 23:42 11,4 C 10,6 C 8,9 C 84 % 1015,2 hPa 0,0 l/m 0 min 0 min 0 W/m 6,4 km/h (2 Bft) 97,87 %
04.10.2021 23:44 11,3 C 10,6 C 8,9 C 84 % 1015,2 hPa 0,0 l/m 0 min 0 min 0 W/m 6,4 km/h (2 Bft) 97,87 %
04.10.2021 23:46 11,3 C 10,6 C 8,9 C 84 % 1015,2 hPa 0,0 l/m 0 min 0 min 0 W/m 3,2 km/h (1 Bft) 95,65 %
04.10.2021 23:48 11,3 C 10,6 C 8,9 C 84 % 1015,2 hPa 0,0 l/m 0 min 0 min 0 W/m 6,4 km/h (2 Bft) 97,87 %
04.10.2021 23:50 11,3 C 10,6 C 8,9 C 84 % 1015,2 hPa 0,0 l/m 0 min 0 min 0 W/m 6,4 km/h (2 Bft) 100,00 %
04.10.2021 23:52 11,3 C 10,6 C 8,9 C 84 % 1015,1 hPa 0,0 l/m 0 min 0 min 0 W/m 3,2 km/h (1 Bft) 100,00 %
04.10.2021 23:54 11,3 C 10,6 C 8,9 C 84 % 1015,1 hPa 0,0 l/m 0 min 0 min 0 W/m 6,4 km/h (2 Bft) 100,00 %
04.10.2021 23:56 11,2 C 10,6 C 8,9 C 85 % 1015,1 hPa 0,0 l/m 0 min 0 min 0 W/m 6,4 km/h (2 Bft) 100,00 %
04.10.2021 23:58 11,2 C 10,6 C 8,9 C 85 % 1015,1 hPa 0,0 l/m 0 min 0 min 0 W/m 6,4 km/h (2 Bft) 100,00 %
_ Min-Zeit 07:34 05:48 23:06 15:44 00:00 - - - - 03:36 20:10
Minimum _ 10,6 C 10,0 C 8,9 C 57 % 1012,4 hPa - - - - 0,0 km/h (0 Bft) 52,50 %
_ Max-Zeit 15:34 14:08 11:38 07:14 12:26 12:26 11:10 00:00 13:54 14:48 00:16
Maximum _ 18,6 C 25,0 C 17,8 C 93 % 1017,1 hPa 0,2 l/m 2 min 0 min 642 W/m 54,7 km/h
W-SW (7 Bft)
100,00 %
Durchschnitt _ 13,7 C 13,5 C 11,9 C 79 % 1015,4 hPa #0,2 l/m #4:10 h #0 min. 228 W/m 11,4 km/h (2 Bft) 97,43 %
© 2021 W. Hausmann